[[{"header":{"parameterUnit":"m.s-1","parameterCategory":1,"la1":30.6,"la2":29.2853,"lo1":-89.7004,"lo2":-87.6739,"dx":0.0162,"dy":0.0183,"nx":112,"ny":82,"refTime":"2022-11-13T06:00:00:Z","depth":0,"parameterNumber":2,"parameterNumberName":"U-component_of_WINDS"},"data":[0.0,0.0,0.0,0.0,0.0,0.0,0.0,0.0,0.0,0.0,0.0,0.0,0.0,0.0,0.0,0.0,0.0,0.0,0.0,0.0,0.0,0.0,0.0,0.0,0.0,0.0,0.0,0.0,0.0,0.0,0.0,0.0,0.0,0.0,0.0,0.0,0.0,0.0,0.0,0.0,0.0,0.0,0.0,0.0,0.0,0.0,0.0,0.0,0.0,0.0,0.0,0.0,0.0,0.0,0.0,0.0,0.0,0.0,0.0,0.0,0.0,0.0,0.0,0.0,0.0,0.0,0.0,0.0,0.0,0.0,0.0,0.0,0.0,0.0,0.0,0.0,0.0,0.0,0.0,0.0,0.0,0.0,0.0,0.0,0.0,0.0,0.0,0.0,0.0,0.0,0.0,6.5166,6.6551,6.7282,6.7282,6.6551,6.3974,5.9011,0.0,0.0,0.0,0.0,0.0,0.0,0.0,0.0,0.0,0.0,0.0,0.0,0.0,0.0,0.0,0.0,0.0,0.0,0.0,0.0,0.0,0.0,0.0,0.0,0.0,0.0,0.0,0.0,0.0,0.0,0.0,0.0,0.0,0.0,0.0,0.0,0.0,0.0,0.0,0.0,0.0,0.0,0.0,0.0,0.0,0.0,0.0,0.0,0.0,0.0,0.0,0.0,0.0,0.0,0.0,0.0,0.0,0.0,0.0,0.0,0.0,0.0,0.0,0.0,0.0,0.0,0.0,0.0,0.0,0.0,0.0,0.0,0.0,0.0,0.0,0.0,0.0,0.0,0.0,0.0,0.0,0.0,0.0,0.0,0.0,0.0,0.0,0.0,0.0,0.0,0.0,0.0,0.0,0.0,0.0,0.0,0.0,0.0,0.0,0.0,0.0,0.0,0.0,0.0,6.3858,6.8436,6.8475,6.8205,6.8205,6.7398,6.5051,6.0704,0.0,0.0,0.0,0.0,0.0,0.0,0.0,0.0,0.0,0.0,0.0,0.0,0.0,0.0,0.0,0.0,0.0,0.0,0.0,0.0,0.0,0.0,0.0,0.0,0.0,0.0,0.0,0.0,0.0,0.0,0.0,0.0,0.0,0.0,0.0,0.0,0.0,0.0,0.0,0.0,0.0,0.0,0.0,0.0,0.0,0.0,0.0,0.0,0.0,0.0,0.0,0.0,0.0,0.0,0.0,0.0,0.0,0.0,0.0,0.0,0.0,0.0,0.0,0.0,0.0,0.0,0.0,0.0,0.0,0.0,0.0,0.0,0.0,0.0,0.0,0.0,0.0,0.0,0.0,0.0,0.0,0.0,0.0,0.0,0.0,0.0,0.0,0.0,0.0,0.0,0.0,0.0,0.0,0.0,0.0,0.0,0.0,0.0,0.0,0.0,0.0,0.0,0.0,6.3743,6.6244,6.9937,6.9167,6.8398,6.8398,6.759,6.5282,6.105,6.0089,0.0,0.0,0.0,0.0,0.0,0.0,0.0,0.0,0.0,0.0,0.0,0.0,0.0,0.0,0.0,0.0,0.0,0.0,0.0,0.0,0.0,0.0,0.0,0.0,0.0,0.0,0.0,0.0,0.0,0.0,0.0,0.0,0.0,0.0,0.0,0.0,0.0,0.0,0.0,0.0,0.0,0.0,0.0,0.0,0.0,0.0,0.0,0.0,0.0,0.0,0.0,0.0,0.0,0.0,0.0,0.0,0.0,0.0,0.0,0.0,0.0,0.0,0.0,0.0,0.0,0.0,0.0,0.0,0.0,0.0,0.0,0.0,0.0,0.0,0.0,0.0,0.0,0.0,0.0,0.0,0.0,0.0,0.0,0.0,0.0,0.0,0.0,0.0,0.0,0.0,0.0,0.0,0.0,0.0,0.0,0.0,0.0,0.0,0.0,0.0,0.0,0.0,6.659,6.8667,7.0437,6.9283,6.8321,6.8129,6.7321,6.5166,6.1358,6.0896,0.0,0.0,0.0,0.0,0.0,0.0,0.0,0.0,0.0,0.0,0.0,0.0,0.0,0.0,0.0,0.0,0.0,0.0,0.0,0.0,0.0,0.0,0.0,0.0,0.0,0.0,0.0,0.0,0.0,0.0,0.0,0.0,0.0,0.0,0.0,0.0,0.0,0.0,0.0,0.0,0.0,0.0,0.0,0.0,0.0,0.0,0.0,0.0,0.0,0.0,0.0,0.0,0.0,0.0,0.0,0.0,0.0,0.0,0.0,0.0,0.0,0.0,0.0,0.0,0.0,0.0,0.0,0.0,0.0,0.0,0.0,0.0,0.0,0.0,0.0,0.0,0.0,0.0,0.0,0.0,0.0,0.0,0.0,0.0,0.0,0.0,0.0,0.0,0.0,0.0,0.0,0.0,0.0,0.0,0.0,0.0,0.0,0.0,0.0,0.0,0.0,0.0,6.8129,7.0437,6.986,6.8936,6.809,6.7244,6.6436,6.4859,6.2166,6.1243,0.0,0.0,0.0,0.0,0.0,0.0,0.0,0.0,0.0,0.0,0.0,0.0,0.0,0.0,0.0,0.0,0.0,0.0,0.0,0.0,0.0,0.0,0.0,0.0,0.0,0.0,0.0,0.0,0.0,0.0,0.0,0.0,0.0,0.0,0.0,0.0,0.0,0.0,0.0,0.0,0.0,0.0,0.0,0.0,0.0,0.0,0.0,0.0,0.0,0.0,0.0,0.0,0.0,0.0,0.0,0.0,0.0,0.0,0.0,0.0,0.0,0.0,0.0,0.0,0.0,0.0,0.0,0.0,0.0,0.0,0.0,0.0,0.0,0.0,0.0,0.0,0.0,0.0,0.0,0.0,0.0,0.0,0.0,0.0,0.0,0.0,0.0,0.0,0.0,0.0,0.0,0.0,0.0,0.0,0.0,0.0,0.0,0.0,0.0,0.0,0.0,0.0,6.7244,6.9013,0.0,6.8744,6.7667,6.7898,6.7628,6.5936,6.232,0.0,0.0,0.0,0.0,0.0,0.0,0.0,0.0,0.0,0.0,0.0,0.0,0.0,0.0,0.0,0.0,0.0,0.0,0.0,0.0,0.0,0.0,0.0,0.0,0.0,0.0,0.0,0.0,0.0,0.0,0.0,0.0,0.0,0.0,0.0,0.0,0.0,0.0,0.0,0.0,0.0,0.0,0.0,0.0,0.0,0.0,0.0,0.0,0.0,0.0,0.0,0.0,0.0,0.0,0.0,0.0,0.0,0.0,0.0,0.0,0.0,0.0,0.0,0.0,0.0,0.0,0.0,0.0,0.0,0.0,0.0,0.0,0.0,0.0,0.0,0.0,0.0,0.0,0.0,0.0,0.0,0.0,0.0,0.0,0.0,0.0,0.0,0.0,0.0,0.0,0.0,0.0,0.0,0.0,0.0,0.0,0.0,0.0,0.0,0.0,0.0,0.0,6.5243,6.7128,6.8783,0.0,6.8783,6.7936,6.7975,6.7975,6.6397,6.2704,0.0,0.0,0.0,0.0,0.0,0.0,0.0,0.0,0.0,0.0,0.0,0.0,0.0,0.0,0.0,0.0,0.0,0.0,0.0,0.0,0.0,0.0,0.0,0.0,0.0,0.0,0.0,0.0,0.0,0.0,0.0,0.0,0.0,0.0,0.0,0.0,0.0,0.0,0.0,0.0,0.0,0.0,0.0,0.0,0.0,0.0,0.0,0.0,0.0,0.0,0.0,0.0,0.0,0.0,0.0,0.0,0.0,0.0,0.0,0.0,0.0,0.0,0.0,0.0,0.0,0.0,0.0,0.0,0.0,0.0,0.0,0.0,0.0,0.0,0.0,0.0,0.0,0.0,0.0,0.0,0.0,0.0,0.0,0.0,0.0,0.0,0.0,0.0,0.0,0.0,0.0,0.0,0.0,0.0,0.0,0.0,0.0,0.0,0.0,0.0,0.0,0.0,6.4589,6.8282,7.0244,6.859,6.9167,6.8975,6.7282,6.7128,6.6051,0.0,0.0,0.0,0.0,0.0,0.0,0.0,0.0,0.0,0.0,0.0,0.0,0.0,0.0,0.0,0.0,0.0,0.0,0.0,0.0,0.0,0.0,0.0,0.0,0.0,0.0,0.0,0.0,0.0,0.0,0.0,0.0,0.0,0.0,0.0,0.0,0.0,0.0,0.0,0.0,0.0,0.0,0.0,0.0,0.0,0.0,0.0,0.0,0.0,0.0,0.0,0.0,0.0,0.0,0.0,0.0,0.0,0.0,0.0,0.0,0.0,0.0,0.0,0.0,0.0,0.0,0.0,0.0,0.0,0.0,0.0,0.0,0.0,0.0,0.0,0.0,0.0,0.0,0.0,0.0,0.0,0.0,0.0,0.0,0.0,0.0,0.0,0.0,0.0,0.0,0.0,0.0,0.0,0.0,0.0,0.0,0.0,0.0,0.0,0.0,0.0,0.0,0.0,6.4666,6.7782,6.986,6.936,6.9013,6.8821,6.8936,6.8936,6.759,6.4436,0.0,0.0,0.0,0.0,0.0,0.0,0.0,0.0,0.0,0.0,0.0,0.0,0.0,0.0,0.0,0.0,0.0,0.0,0.0,0.0,0.0,0.0,0.0,0.0,0.0,0.0,0.0,0.0,0.0,0.0,0.0,0.0,0.0,0.0,0.0,0.0,0.0,0.0,0.0,0.0,0.0,0.0,0.0,0.0,0.0,0.0,0.0,0.0,0.0,0.0,0.0,0.0,0.0,0.0,0.0,0.0,0.0,0.0,0.0,0.0,0.0,0.0,0.0,0.0,0.0,0.0,0.0,0.0,0.0,0.0,0.0,0.0,0.0,0.0,0.0,0.0,0.0,0.0,0.0,0.0,0.0,0.0,0.0,0.0,0.0,0.0,0.0,0.0,0.0,0.0,0.0,0.0,0.0,0.0,0.0,0.0,0.0,0.0,0.0,0.0,0.0,0.0,6.4666,6.759,6.9706,6.9706,6.9513,6.9475,6.9667,6.9975,6.8859,6.5782,0.0,0.0,0.0,0.0,0.0,0.0,0.0,0.0,0.0,0.0,0.0,0.0,0.0,0.0,0.0,0.0,0.0,0.0,0.0,0.0,0.0,0.0,0.0,0.0,0.0,0.0,0.0,0.0,0.0,0.0,0.0,0.0,0.0,0.0,0.0,0.0,0.0,0.0,0.0,0.0,0.0,0.0,0.0,0.0,0.0,0.0,0.0,0.0,0.0,0.0,0.0,0.0,0.0,0.0,0.0,0.0,0.0,0.0,0.0,0.0,0.0,0.0,0.0,0.0,0.0,0.0,0.0,0.0,0.0,0.0,0.0,0.0,0.0,0.0,0.0,0.0,0.0,0.0,0.0,0.0,0.0,0.0,0.0,0.0,0.0,0.0,0.0,0.0,0.0,0.0,0.0,0.0,0.0,0.0,0.0,0.0,0.0,0.0,0.0,0.0,0.0,0.0,6.4628,6.7667,6.9821,6.9821,7.0552,7.0744,6.9975,7.0591,6.9975,6.7513,0.0,0.0,0.0,0.0,0.0,0.0,0.0,0.0,0.0,0.0,0.0,0.0,0.0,0.0,0.0,0.0,0.0,0.0,0.0,0.0,0.0,0.0,0.0,0.0,0.0,0.0,0.0,0.0,0.0,0.0,0.0,0.0,0.0,0.0,0.0,0.0,0.0,0.0,0.0,0.0,0.0,0.0,0.0,0.0,0.0,0.0,0.0,0.0,0.0,0.0,0.0,0.0,0.0,0.0,0.0,0.0,0.0,0.0,0.0,0.0,5.8588,0.0,0.0,0.0,0.0,0.0,0.0,0.0,0.0,0.0,0.0,0.0,0.0,0.0,0.0,0.0,0.0,0.0,0.0,0.0,0.0,0.0,0.0,0.0,0.0,0.0,0.0,0.0,0.0,0.0,0.0,0.0,0.0,0.0,0.0,0.0,0.0,0.0,0.0,0.0,0.0,0.0,6.4705,6.8129,7.0629,7.0629,7.1398,7.186,7.1668,7.1822,7.1129,6.9244,6.8359,0.0,0.0,0.0,0.0,0.0,0.0,0.0,0.0,0.0,0.0,0.0,0.0,0.0,0.0,0.0,0.0,0.0,0.0,0.0,0.0,0.0,0.0,0.0,0.0,0.0,0.0,0.0,0.0,0.0,0.0,0.0,0.0,0.0,0.0,0.0,0.0,0.0,0.0,0.0,0.0,0.0,0.0,0.0,0.0,0.0,0.0,0.0,0.0,0.0,0.0,0.0,0.0,0.0,0.0,0.0,0.0,0.0,0.0,0.0,0.0,5.9242,0.0,0.0,0.0,0.0,0.0,0.0,0.0,0.0,0.0,0.0,0.0,0.0,0.0,0.0,0.0,0.0,0.0,0.0,0.0,0.0,0.0,0.0,0.0,0.0,0.0,0.0,0.0,0.0,0.0,0.0,0.0,0.0,0.0,0.0,0.0,0.0,0.0,0.0,0.0,0.0,6.632,6.9052,7.1052,7.1475,7.2283,7.2822,7.2822,7.2822,7.2437,7.1591,7.0321,0.0,0.0,0.0,0.0,0.0,0.0,0.0,0.0,0.0,0.0,0.0,0.0,0.0,0.0,0.0,0.0,0.0,0.0,0.0,0.0,0.0,0.0,0.0,0.0,0.0,0.0,0.0,0.0,0.0,0.0,0.0,0.0,0.0,0.0,0.0,0.0,0.0,0.0,0.0,0.0,0.0,0.0,0.0,0.0,0.0,0.0,0.0,0.0,0.0,0.0,0.0,0.0,0.0,6.2743,6.2435,6.1897,6.1897,6.1973,6.2166,6.2589,6.3705,6.4974,0.0,0.0,0.0,0.0,0.0,0.0,0.0,0.0,0.0,0.0,0.0,0.0,0.0,0.0,0.0,0.0,0.0,0.0,0.0,0.0,0.0,0.0,0.0,0.0,0.0,6.809,6.7859,0.0,0.0,0.0,0.0,0.0,0.0,0.0,0.0,0.0,0.0,0.0,0.0,6.8359,7.009,7.1514,7.2514,7.3283,7.3707,7.3707,7.3707,7.3707,7.3707,7.2245,7.1129,0.0,0.0,0.0,0.0,0.0,0.0,0.0,0.0,0.0,0.0,0.0,0.0,0.0,0.0,0.0,0.0,0.0,0.0,0.0,0.0,0.0,0.0,0.0,0.0,0.0,0.0,0.0,0.0,0.0,0.0,0.0,0.0,5.1705,5.4818,0.0,0.0,0.0,0.0,0.0,0.0,0.0,0.0,0.0,0.0,0.0,0.0,0.0,6.1843,6.3122,6.3036,6.3795,6.5397,6.541,6.5692,6.6269,6.6269,6.6667,6.7295,6.5974,0.0,6.2589,6.2743,0.0,0.0,0.0,0.0,0.0,0.0,0.0,0.0,0.0,0.0,0.0,0.0,0.0,0.0,0.0,0.0,0.0,0.0,0.0,0.0,0.0,0.0,6.9937,6.9475,6.9436,6.9398,0.0,6.6513,6.4359,6.4128,6.3474,0.0,0.0,0.0,0.0,0.0,0.0,0.0,6.9398,7.0975,7.2629,7.4207,7.4476,7.4553,7.4553,7.4553,7.4553,7.4553,7.3668,7.3437,7.4014,7.1245,0.0,0.0,0.0,0.0,0.0,0.0,0.0,0.0,0.0,0.0,0.0,0.0,0.0,0.0,0.0,0.0,0.0,0.0,0.0,0.0,0.0,0.0,0.0,0.0,0.0,0.0,0.0,0.0,0.0,5.183,5.3928,5.679,5.6437,5.5838,0.0,0.0,0.0,0.0,0.0,0.0,0.0,0.0,0.0,6.1582,6.2367,6.3638,6.5408,6.5422,6.582,6.6576,6.6564,6.6513,6.6423,6.6436,6.6628,6.6974,6.6282,6.5359,6.432,6.4128,6.4128,6.4089,0.0,0.0,0.0,0.0,6.3243,6.3782,6.4512,6.5897,0.0,0.0,0.0,0.0,0.0,0.0,0.0,0.0,0.0,0.0,0.0,0.0,0.0,7.086,7.0744,7.0244,6.9821,6.8513,6.7321,0.0,6.6436,6.6013,6.5513,0.0,0.0,0.0,0.0,6.9783,7.1591,7.286,7.3899,7.463,7.5592,7.6169,7.6169,7.6169,7.6361,7.6823,7.6092,7.5553,7.5438,7.4014,7.1937,0.0,0.0,0.0,0.0,0.0,0.0,0.0,0.0,0.0,0.0,0.0,0.0,0.0,0.0,0.0,0.0,0.0,0.0,0.0,0.0,0.0,0.0,0.0,0.0,0.0,0.0,0.0,0.0,5.4643,5.6322,5.8649,5.8755,5.8294,0.0,0.0,0.0,0.0,0.0,0.0,6.1373,6.1651,6.2474,6.3935,6.4152,6.51,6.6769,6.6769,6.6782,6.6833,6.6833,6.6564,6.6013,6.6013,6.6128,6.6384,6.6461,6.6615,6.6731,6.5474,6.5359,6.5859,6.4974,6.4628,6.4628,6.4859,6.532,6.5974,6.6667,6.7705,6.8783,6.8975,0.0,6.9283,6.8859,0.0,0.0,0.0,0.0,6.7552,6.9244,6.9552,6.9744,7.1206,7.1052,7.0475,7.009,7.0014,6.9744,0.0,6.8552,6.8282,6.7821,0.0,0.0,0.0,0.0,7.1437,7.3553,7.4514,7.513,7.5361,7.6707,7.7592,7.7592,7.7823,7.8092,7.8477,7.813,7.7553,7.6669,7.6245,7.4514,7.136,0.0,0.0,0.0,0.0,0.0,0.0,0.0,0.0,0.0,0.0,0.0,0.0,0.0,0.0,0.0,0.0,0.0,0.0,0.0,0.0,0.0,0.0,0.0,0.0,0.0,0.0,0.0,0.0,0.0,6.0444,6.2026,0.0,0.0,0.0,0.0,6.066,6.0674,6.1428,6.3092,6.3962,6.4834,6.5743,6.6526,6.6602,6.5974,6.5936,6.6013,6.6128,6.6128,6.6205,6.6384,6.6384,6.6808,6.7603,6.7603,6.8052,6.8629,6.6769,6.6051,6.5974,6.4987,6.4603,6.4718,6.5551,6.5859,6.6244,6.8667,6.9563,6.9756,7.0552,7.1321,7.1706,7.0129,7.0129,0.0,0.0,6.9436,7.0514,6.986,7.086,7.1629,7.0167,6.9783,6.9975,7.0667,7.0821,7.0591,0.0,6.8975,6.8667,6.9436,0.0,7.0706,7.086,7.2283,7.363,7.4514,7.5399,7.6245,7.7092,7.7938,7.8438,7.8438,7.9208,7.9323,7.8554,7.9246,7.9285,7.84,7.6861,7.5899,7.5707,7.1706,0.0,0.0,0.0,0.0,0.0,0.0,0.0,0.0,0.0,0.0,0.0,0.0,0.0,0.0,0.0,0.0,0.0,0.0,0.0,0.0,0.0,0.0,0.0,0.0,0.0,0.0,0.0,0.0,6.153,6.3128,0.0,6.2243,6.2574,6.2719,6.2413,6.3438,6.4347,6.4949,6.5257,6.5628,6.6013,6.632,6.6397,6.623,6.6769,6.7102,6.7141,6.7656,6.792,6.7998,6.7998,6.8193,6.8486,6.8605,6.882,6.9041,6.8365,6.7947,6.7718,6.7256,6.741,6.7911,6.8244,6.8642,6.9335,7.0798,7.1337,7.1464,7.23,7.2773,7.2927,7.2322,7.236,7.2437,7.186,7.2129,7.2514,7.2206,7.2591,7.2899,7.2283,7.2168,7.2206,7.2514,7.2591,7.2476,7.2206,7.1898,7.1937,7.2783,7.2745,7.2937,7.4014,7.4707,7.5438,7.6245,7.7092,7.7707,7.8015,7.8823,7.9323,7.9323,8.0131,8.0708,8.0939,8.1246,8.0785,7.94,7.9285,7.8246,7.6053,7.4514,7.2245,0.0,0.0,0.0,0.0,0.0,0.0,0.0,0.0,0.0,0.0,0.0,0.0,0.0,0.0,0.0,0.0,0.0,0.0,0.0,0.0,0.0,0.0,0.0,0.0,0.0,0.0,6.219,6.2465,6.4243,6.4792,6.3092,6.3668,6.4193,6.4193,6.5257,6.5897,6.5974,6.5974,6.6051,6.6205,6.6496,6.67,6.6833,6.7687,6.8131,6.8208,6.8747,6.9023,6.9101,6.9062,6.9219,6.9491,6.9628,6.9879,7.0156,7.0063,6.992,6.9605,6.8835,6.8873,6.9335,6.9297,6.9797,7.0656,7.1811,7.2388,7.2734,7.3339,7.3658,7.3966,7.4245,7.4553,7.4861,7.513,7.5207,7.5053,7.4476,7.4361,7.4207,7.363,7.3514,7.3591,7.386,7.3899,7.4091,7.4668,7.4091,7.3668,7.4207,7.4091,7.4284,7.5399,7.5822,7.6207,7.6784,7.7823,7.8477,7.8477,7.9554,8.0362,8.0631,8.0939,8.1554,8.267,8.2439,8.1785,8.0708,8.0362,7.9015,7.6476,7.5014,7.3053,7.0514,0.0,0.0,0.0,0.0,0.0,0.0,0.0,0.0,0.0,0.0,0.0,0.0,0.0,0.0,0.0,0.0,0.0,0.0,0.0,0.0,0.0,0.0,0.0,6.0702,6.306,6.436,6.351,6.5589,6.6461,6.4795,6.5397,6.5897,6.5897,6.5897,6.5974,6.6128,6.614,6.6242,6.6473,6.7305,6.7734,6.7734,6.8555,6.9062,6.9258,6.9258,6.9375,6.957,6.9531,6.9961,7.0781,7.082,7.1289,7.207,7.1875,7.1788,7.1595,6.9563,6.8806,6.8767,6.8586,6.9113,7.0113,7.1776,7.2919,7.3668,7.3668,7.4168,7.4966,7.5822,7.6669,7.7515,7.8284,7.8477,7.8092,7.6476,7.6015,7.5592,7.3976,7.3591,7.3822,7.463,7.4784,7.5284,7.6976,7.5322,7.3668,7.3668,7.4322,7.4822,7.4822,7.5553,0.0,7.613,7.7553,7.8554,7.8515,8.0131,8.1477,8.2208,8.1631,8.1939,8.3516,8.2862,8.2362,8.2285,7.9977,7.8284,7.7438,7.3245,7.1475,7.2283,0.0,0.0,0.0,0.0,0.0,0.0,0.0,0.0,0.0,0.0,0.0,0.0,0.0,0.0,0.0,0.0,0.0,0.0,0.0,0.0,0.0,0.0,6.3732,6.3551,6.4731,6.5651,6.6008,6.6679,6.6692,6.5628,6.5743,6.5936,6.6051,6.6051,6.6423,6.7218,6.7256,6.7617,6.8405,6.8664,6.8828,6.8945,6.9765,7.0234,7.0312,7.0937,7.125,7.1328,7.1953,7.2344,7.2617,7.3242,7.3672,7.3867,7.3672,7.3582,7.3367,7.1308,7.0514,7.0552,7.1014,7.2476,7.4361,7.4793,7.5899,7.715,7.715,7.7266,7.7497,7.7728,7.8006,7.8216,7.8446,7.8092,7.7515,7.7053,7.6476,7.5861,7.5438,7.5322,7.5553,7.6399,7.6592,7.6899,7.7938,7.7592,7.713,7.713,7.7323,7.7438,7.7438,7.8207,0.0,7.8746,7.9708,8.0131,7.9515,8.1516,8.2516,8.1516,8.3478,8.467,8.4555,8.4863,8.4247,8.2362,8.2824,8.217,8.0092,7.7092,7.5053,0.0,0.0,0.0,0.0,0.0,0.0,0.0,0.0,0.0,0.0,0.0,0.0,0.0,0.0,0.0,0.0,0.0,0.0,0.0,0.0,0.0,0.0,6.4411,6.6461,6.6718,6.6857,6.7099,6.7576,6.7321,6.6808,6.6051,6.5974,6.6205,6.6731,6.6748,6.7238,6.8263,6.8318,6.8633,6.9297,6.9648,6.9883,6.9922,7.082,7.1445,7.1797,7.2305,7.2734,7.3125,7.3594,7.3828,0.0,7.4375,7.4609,7.4609,7.4453,7.4379,0.0,0.0,0.0,0.0,0.0,7.4399,7.6053,7.6408,7.7408,7.8477,7.8477,7.8477,7.8554,7.893,7.9054,7.9138,7.9485,7.9246,7.8823,7.8438,7.8246,7.7938,7.7207,7.7323,7.763,7.7784,7.7784,7.8054,7.8861,7.9054,0.0,7.9515,7.8977,7.84,7.8054,7.8707,7.9246,7.9246,8.0323,8.1054,8.0862,8.2824,8.4016,8.3747,8.4901,0.0,0.0,0.0,8.4593,8.2401,8.2939,0.0,0.0,0.0,0.0,0.0,0.0,0.0,0.0,6.9975,6.8513,0.0,0.0,0.0,0.0,0.0,0.0,0.0,0.0,0.0,0.0,0.0,0.0,0.0,0.0,0.0,0.0,6.5855,6.8087,6.964,6.9036,6.8448,6.8398,6.7564,6.6769,6.6307,6.6275,6.6714,6.7779,6.7859,6.832,6.9336,0.0,0.0,0.0,0.0,7.0976,7.0976,7.1875,7.2695,7.3437,7.3437,7.3867,7.4609,7.4687,7.4765,7.4765,7.4844,7.4883,7.4883,7.4952,7.4937,7.4793,7.4004,7.3724,7.3878,7.4591,7.5447,7.6399,7.727,0.0,0.0,7.88,7.88,7.8954,7.9715,7.9946,8.0138,8.0977,8.117,8.0977,8.04,8.0669,8.0746,7.9246,7.9361,7.9631,7.8938,7.8707,7.89,7.9785,7.9939,8.0208,8.1093,7.9862,7.8592,7.7938,7.8477,7.8938,7.9054,8.0439,8.1631,8.2247,0.0,0.0,8.7017,8.6094,8.6401,8.8556,8.6401,8.4401,8.2939,8.19,8.0708,7.9246,7.7669,7.7592,7.9054,7.7476,7.7438,7.8631,7.2437,7.036,0.0,0.0,0.0,0.0,0.0,0.0,0.0,0.0,0.0,0.0,0.0,0.0,0.0,0.0,0.0,6.6254,6.851,7.0256,7.0629,6.9421,6.8525,6.8437,6.7179,6.6538,6.7102,6.7321,6.7815,6.883,6.89,6.9336,7.0351,7.039,7.0742,7.1484,7.2344,7.2812,7.2812,7.3672,7.418,7.4336,0.0,0.0,7.4609,7.5312,7.5664,7.5703,7.6406,7.6719,7.6756,7.7265,7.7821,7.7959,7.4899,7.4024,7.4601,7.5438,7.6736,7.8151,7.9023,7.9869,8.0631,8.0631,8.0631,8.0631,8.0823,8.0862,0.0,8.1855,8.1593,8.1369,8.2554,8.1977,8.117,8.1477,8.0669,7.9939,8.0477,8.0054,7.9823,8.0669,8.0862,8.1093,8.1939,8.1246,8.0746,8.1246,8.1477,8.1823,8.2516,8.2901,8.2901,8.2362,8.5055,8.6517,8.5478,8.7555,8.8863,8.8709,8.6901,8.6017,8.6401,8.4286,8.3285,8.367,8.2631,8.2285,8.2593,8.1593,8.09,8.0516,7.7823,7.6707,0.0,0.0,0.0,0.0,0.0,0.0,0.0,0.0,0.0,0.0,0.0,6.2334,0.0,0.0,6.7244,6.7664,6.9498,7.0937,7.1052,7.0025,6.9064,6.8552,6.7564,6.7106,6.7606,6.8127,6.8867,6.9883,6.9961,7.0351,7.1289,7.1758,7.2187,7.2656,7.3515,7.3945,7.3945,7.4375,7.4805,7.5234,7.5234,7.5469,7.5937,7.6367,7.6562,7.6601,7.789,7.8437,7.8554,7.9656,8.0319,8.0405,7.8459,7.7314,7.6813,7.7121,7.8314,7.9854,8.0323,8.1285,8.2355,8.2355,8.2355,8.2355,8.2355,8.2355,8.2432,8.2848,8.267,8.2529,8.3401,8.3285,8.2978,8.2939,8.2631,8.2362,8.2362,8.167,8.117,8.1631,8.1708,8.1823,8.2247,8.2324,8.2477,8.2901,8.2939,8.3093,8.3516,8.3978,8.4247,8.4209,8.6517,8.7863,8.744,8.9363,9.021,8.9363,8.8479,8.8017,8.8055,8.6824,8.6132,8.617,8.5286,8.4632,8.4247,8.3362,8.2747,8.2324,8.1439,8.0131,0.0,0.0,0.0,0.0,0.0,0.0,0.0,0.0,6.2286,6.4168,6.4538,6.483,6.5663,6.6918,6.8087,6.8844,7.0063,7.1091,7.1464,7.0667,6.981,6.9262,6.8509,6.8093,6.8396,6.9062,6.9883,7.0898,7.1094,7.1523,7.2226,7.3086,7.3555,7.3555,7.4414,7.4922,7.5117,7.5117,7.5625,7.664,7.6484,7.6836,7.7695,7.7851,7.793,7.8008,7.9531,8.0312,8.0547,8.1601,8.227,8.253,8.2143,8.1156,7.9875,7.946,8.0161,8.1362,8.1554,8.2439,8.3587,8.3587,8.3587,8.3587,8.3587,8.3625,8.3695,8.3888,8.3939,8.3989,8.4176,8.4747,8.5093,8.4401,8.4632,8.4863,8.4286,8.3478,8.2901,8.3016,8.3054,8.3093,8.3247,8.3708,8.4016,8.3862,8.3862,8.3901,8.4055,8.4709,8.5401,8.6017,8.7671,8.9094,9.0094,9.0787,9.0902,9.021,8.9979,8.9633,8.894,8.8786,8.8363,8.7671,8.6786,8.6017,8.5401,8.4516,8.4016,8.3862,8.3862,8.2285,5.5994,5.719,5.9125,5.9309,6.092,6.2963,0.0,0.0,6.6035,6.8498,6.896,6.9229,7.0063,7.0333,7.0591,7.086,7.1052,7.1503,7.2492,7.1387,7.0655,7.1295,6.9986,6.933,7.0117,7.039,7.0898,7.1797,7.2578,7.3047,7.3164,7.3984,7.4453,7.4453,7.5312,7.6133,7.6914,7.6914,7.7695,7.9258,7.8555,7.8633,7.9453,8.0234,8.0586,8.0625,8.1601,8.2461,8.3125,8.25,8.3162,8.4479,8.3503,8.3438,8.3803,8.2656,8.2201,8.2278,8.3061,8.3451,8.3605,8.3605,8.3605,8.3605,8.3605,8.372,8.4061,8.4791,8.5137,8.5445,8.6247,8.6478,8.6555,8.644,8.594,8.556,8.606,8.5483,8.5022,8.5593,8.567,8.594,8.6709,8.6286,8.5593,8.4863,8.4747,8.5016,8.5747,8.5901,8.6017,8.6094,8.7671,8.9325,9.0941,9.1133,9.1171,9.1056,9.0325,8.9863,8.9787,8.9094,8.8632,8.8556,8.7709,8.7209,8.7132,8.6247,8.544,8.4747,8.4747,8.4132,5.9276,5.9848,6.0997,6.3935,6.477,6.5371,6.7602,6.8114,6.8548,7.0063,7.0371,7.0514,7.086,7.1014,7.1091,0.0,7.1744,7.2312,7.2819,7.2351,7.2119,7.2576,7.1562,7.0781,7.0625,7.1562,7.2344,7.2734,7.3555,7.4062,7.4062,7.4883,7.5586,7.6094,7.6484,7.7305,7.8633,7.8633,7.9258,8.0469,8.0625,8.0898,8.1211,8.1601,8.2304,8.3281,8.3633,8.4609,8.5859,8.5469,8.5742,8.6367,8.5937,8.5864,8.5867,8.4221,8.3862,8.4209,8.4599,8.506,8.5445,8.5445,8.5445,8.5445,8.5445,8.5522,8.5668,8.6026,8.6168,8.6324,8.6714,8.7195,8.7545,8.7545,8.7662,8.7856,8.8127,8.7399,8.6752,8.6983,8.7017,8.7166,8.7512,8.7401,8.7132,8.6819,8.6094,8.5709,8.6055,8.6094,8.6478,8.7517,8.8248,8.9363,9.1056,9.121,9.121,9.121,9.0864,9.0671,9.0671,9.0325,8.9902,8.9402,8.9056,8.8632,8.8132,8.7286,8.6671,8.6324,8.5824,8.5401,6.1147,6.1797,6.2868,6.6999,6.7637,6.7752,6.964,7.0025,7.0179,7.0783,7.0937,7.0975,7.0975,7.1129,7.1377,7.1647,7.2353,7.3086,7.3711,7.3398,7.332,7.3945,7.3047,7.2226,7.1797,7.2695,7.3398,7.3633,7.4453,7.4961,7.4961,7.6015,7.6914,7.7539,7.8008,7.8945,8.039,8.0429,8.0976,8.207,8.2461,8.2773,8.3047,8.3281,8.4219,8.5625,8.5625,8.6328,8.75,8.75,8.75,8.75,8.75,8.7383,8.7065,8.5697,8.5459,8.587,8.587,8.6258,8.68,8.68,8.68,8.68,8.68,8.6839,8.6941,8.7162,8.7265,8.7383,8.7617,8.8162,8.8623,8.8623,8.913,8.9637,8.9793,8.9197,8.8687,8.8854,8.8863,8.8848,8.8866,8.8789,8.8789,8.8779,8.7717,8.6825,8.6588,8.6709,8.7401,8.8863,8.9017,8.9633,9.1095,9.121,9.121,9.121,9.121,9.121,9.121,9.121,9.0902,9.0287,9.0017,8.9633,8.9017,8.8171,8.7632,8.7363,8.6748,8.6324,6.0381,6.2631,6.4907,6.6688,6.896,7.0783,7.086,7.086,7.086,7.0898,7.1052,7.1168,7.1168,7.1387,7.1838,7.2791,7.2968,7.3633,7.5547,7.4375,7.3906,7.5625,7.4297,7.3594,0.0,7.3789,7.3633,7.4492,7.5351,7.5859,7.5859,7.75,7.8437,7.8476,8.0039,8.1328,8.2226,8.2226,8.3086,8.4765,8.3945,8.3984,8.4844,8.5703,8.6562,8.7422,8.7422,8.7461,8.75,8.75,8.75,8.75,8.75,8.75,8.7461,8.7421,8.7147,8.6757,8.6757,8.6796,8.6796,8.6796,8.6796,8.6796,8.6796,8.6952,8.7265,8.8125,8.8476,8.8828,8.9687,8.9921,8.9921,8.9921,8.9961,9.0156,9.082,9.0936,9.1062,9.1655,9.1748,9.1778,9.1782,9.108,9.0517,9.0517,8.9603,8.861,8.7737,8.8209,8.894,8.9787,8.9863,9.0248,9.1133,9.121,9.121,9.121,9.121,9.121,9.121,9.121,9.121,9.1171,9.0325,8.9902,8.9863,8.9056,8.8209,8.7401,8.7363,8.6901,6.4209,6.6013,6.7522,6.919,7.0256,7.0898,7.0898,7.0898,7.0937,7.1052,7.1052,7.1101,7.1327,7.1438,7.1838,7.285,7.3594,7.4297,7.4961,7.5039,7.5039,7.5039,7.4531,0.0,0.0,0.0,0.0,7.543,7.6289,7.6992,7.7578,7.8672,7.9844,8.0976,8.1562,8.2578,8.4023,8.4023,8.4609,8.5781,8.6054,8.6328,8.664,8.6914,8.7226,8.75,8.75,8.7812,8.8281,8.8281,8.8633,8.914,8.914,8.914,8.914,8.914,8.9062,8.875,8.7656,8.7617,8.8047,8.8047,8.8437,8.8906,8.8906,8.8984,8.9101,8.9375,8.9492,8.9648,8.9922,9.0429,9.0859,9.0859,9.1289,9.1797,9.1992,9.1914,9.1858,9.2072,9.213,9.2083,9.2102,9.1517,9.098,9.0669,8.9706,8.8861,8.8435,8.8556,8.9017,8.9825,8.9902,9.0248,9.1133,9.121,9.121,9.121,9.121,9.121,9.121,9.121,9.121,9.121,9.0902,9.0748,9.0748,8.9902,8.9363,8.9056,8.8517,8.7786,6.6665,6.7975,6.8844,7.0591,7.1014,7.1014,7.1091,7.1091,7.1129,7.1283,7.1192,7.1225,7.1516,7.1846,7.2383,7.3398,7.4414,7.5273,7.5898,7.5937,7.5937,7.5976,7.543,7.539,0.0,0.0,0.0,7.6367,7.7422,7.8359,7.8906,8.0312,8.1601,8.2734,8.3359,8.4219,8.5351,8.5664,8.6094,8.6679,8.7226,8.7656,8.7929,8.7929,8.8086,8.8398,8.8398,8.8672,8.914,8.914,8.9492,9.0,9.0,9.0,9.0,9.0,9.0,8.9844,8.8789,8.8711,8.914,8.914,8.9531,9.0,9.0,9.0,9.0078,9.039,9.0469,9.0547,9.0859,9.1328,9.1758,9.1758,9.2187,9.2617,9.2617,9.2461,9.2322,9.2326,9.2355,9.2355,9.2355,9.2004,9.1613,9.1153,9.0467,8.994,8.9633,8.9594,8.9787,9.0325,9.0364,9.0594,9.1171,9.121,9.121,9.121,9.121,9.121,9.121,9.121,9.121,9.121,9.121,9.121,9.121,9.0633,9.021,8.9902,8.9363,8.8671,6.7637,6.8548,6.896,7.0783,7.1222,7.1274,7.1454,7.1454,7.1377,7.1377,7.1303,7.1285,0.0,0.0,7.3203,7.4297,7.5273,7.6484,7.8203,7.6992,7.6562,0.0,0.0,0.0,0.0,0.0,0.0,7.7305,0.0,7.9687,7.9844,8.2226,8.3633,8.3711,8.539,8.6289,8.6289,8.7109,8.7539,8.7578,8.7578,8.7969,8.8789,8.8789,8.9219,9.0,9.0,9.0039,9.0078,9.0078,9.0078,9.0117,9.0117,9.0117,9.0117,9.0117,9.0117,9.0117,9.0117,9.0117,9.0078,9.0078,9.0117,9.0117,9.0117,9.0117,9.0312,9.1133,9.1367,9.1562,9.2383,9.2617,9.2617,9.2617,9.2617,9.2617,9.2617,9.2617,9.2617,9.2617,9.2617,9.2617,9.2617,9.2617,9.2443,9.1981,9.1898,9.171,9.1248,9.121,9.121,9.121,9.121,9.121,9.121,9.121,9.121,9.121,9.121,9.121,9.121,9.121,9.121,9.121,9.121,9.121,9.121,9.121,9.0787,8.9979,9.0017,8.9594,6.9871,7.0514,7.0629,7.1245,7.1409,7.1455,7.1494,7.0512,6.9614,6.977,6.8538,6.761,6.8034,6.9655,0.0,7.2461,7.4492,0.0,7.7383,7.7148,0.0,7.7461,0.0,7.7226,7.8086,7.8164,0.0,0.0,7.8906,7.9648,8.1523,8.289,8.4219,8.5508,8.6601,8.7187,8.7187,8.7383,8.7812,8.8398,8.8398,8.8828,8.9687,8.9687,8.9804,9.0,9.0,9.0351,9.0976,9.0976,9.1367,9.1953,9.1953,9.1953,9.1953,9.1953,9.1953,9.1953,9.1953,9.1523,9.0976,9.0976,9.1406,9.1953,9.1953,9.1953,9.1992,9.2226,9.2265,9.2304,9.2539,9.2617,9.2617,9.2617,9.2617,9.2617,9.2617,9.2617,9.2617,9.2617,9.2617,9.2617,9.2617,9.2617,9.2482,9.2176,9.2119,9.1899,9.1287,9.121,9.121,9.121,9.121,9.121,9.121,9.121,9.121,9.121,9.121,9.121,9.121,9.121,9.121,9.121,9.121,9.121,9.121,9.121,9.1095,9.0902,9.1518,9.1364,7.0821,7.1313,7.1373,7.1529,7.1597,7.1406,7.0742,6.9844,6.8945,6.8203,6.707,6.6595,6.7702,6.9484,7.1289,0.0,0.0,0.0,7.8125,7.8008,7.789,0.0,7.8281,0.0,7.8476,7.8828,7.9531,0.0,8.0429,8.0976,8.2773,8.4062,8.5351,8.6719,8.7226,8.7656,8.8008,8.8047,8.8437,8.9258,8.9258,8.9726,9.0586,9.0586,9.0781,9.1133,0.0,9.1406,9.1875,9.1875,9.2148,9.2617,9.2617,9.2617,9.2617,9.2617,9.2617,9.2617,9.2617,9.2265,9.1875,9.1875,9.2187,9.2617,9.2617,9.2617,9.2617,9.2617,9.2617,9.2617,9.2617,9.2617,9.2617,9.2617,9.2617,9.2617,9.2617,9.2617,9.2617,9.2617,9.2617,9.2617,9.2617,9.2617,9.2494,9.2256,9.2184,9.2035,9.1561,9.1406,9.1287,9.121,9.121,9.121,9.121,9.121,9.121,9.121,9.121,9.121,9.121,9.121,9.121,9.121,9.121,9.1402,9.1787,9.1787,9.1941,9.2326,9.2787,9.2749,7.1101,7.1549,7.1562,7.1719,7.1758,7.1328,6.9765,6.9297,6.8594,6.668,6.5972,6.6283,6.8197,6.979,7.1484,7.3555,7.5469,7.7305,7.9101,7.8789,7.8711,7.9765,7.9765,7.9453,7.8906,7.9453,8.0586,8.2344,8.2461,8.289,8.3906,8.539,8.664,8.7617,8.7656,8.8047,8.8867,8.8867,8.9297,9.0156,9.0156,9.0625,9.1484,9.1484,9.1875,9.2617,0.0,0.0,9.2617,9.2617,9.2617,9.2617,9.2617,9.2617,9.2617,9.2617,9.2617,9.2617,9.2617,9.2617,9.2617,9.2617,9.2617,9.2617,9.2617,9.2617,9.2617,9.2617,9.2617,9.2617,9.2617,9.2617,9.2617,9.2617,9.2617,9.2617,9.2617,9.2617,9.2617,9.2617,9.2617,9.2617,9.2617,9.2617,9.2539,9.2304,9.2243,9.2197,9.2112,9.1744,9.1479,9.1441,9.1287,9.1248,9.1364,9.1287,9.121,9.121,9.121,9.121,9.121,9.121,9.121,9.121,9.1325,9.1748,9.2479,9.2595,9.3018,9.371,9.3826,9.3864,7.1568,7.1671,7.1719,7.1914,7.1953,7.1523,6.9844,6.8398,6.6836,6.5078,6.338,6.2799,6.4794,6.6312,6.7969,6.9961,7.2383,7.4844,7.7305,7.75,7.8242,8.0508,8.0156,7.9922,8.0508,8.0703,0.0,0.0,0.0,8.4062,8.5664,8.6054,8.6914,8.8437,8.8476,8.8906,8.9765,8.9765,9.0195,9.1054,9.1054,9.1523,9.2383,9.2383,9.2461,9.2617,9.2617,0.0,9.2617,9.2617,9.2617,9.2617,9.2617,9.2617,9.2617,9.2617,9.2617,9.2617,9.2617,9.2617,9.2617,9.2617,9.2617,9.2617,9.2617,9.2617,9.2617,9.2617,9.2617,9.2617,9.2617,9.2617,9.2617,9.2617,9.2617,9.2617,9.2617,9.2617,9.2617,9.2617,9.2617,9.2617,9.2617,9.2617,9.2578,9.2539,9.2525,9.2685,9.3172,9.2208,9.1748,9.2441,9.1748,9.1479,9.221,9.1595,9.121,9.121,9.121,9.121,9.121,9.121,9.121,9.121,9.1902,9.2364,9.2479,9.3172,9.3557,9.371,9.4441,9.4749,7.0703,7.1172,7.1875,7.1992,7.2344,7.1875,6.8828,6.7851,6.668,6.3515,6.2089,6.2108,6.4415,6.5756,6.7305,6.9687,7.2656,7.5234,7.6953,7.8359,7.9805,8.1484,8.1328,8.1406,8.2265,8.2344,8.3086,8.4804,0.0,8.5312,8.6172,8.7031,8.7851,8.8672,8.914,8.9804,9.0664,9.0664,9.1094,9.1992,9.1992,9.2187,9.2617,9.2617,9.2617,9.2617,9.2617,0.0,9.2617,9.2617,9.2617,9.2617,9.2617,9.2617,9.2617,9.2617,9.2617,9.2617,9.2617,9.2617,9.2617,9.2617,9.2617,9.2617,9.2617,9.2617,9.2617,9.2617,9.2617,9.2617,9.2617,9.2617,9.2617,9.2617,9.2617,9.2617,9.2617,9.2617,9.2617,9.2617,9.2617,9.2617,9.2617,9.2617,9.2617,9.2617,9.3008,9.3393,9.3685,9.3415,9.3273,9.3474,9.2864,9.2672,9.3095,9.2364,9.1864,9.1864,9.1441,9.121,9.121,9.121,9.1402,9.1864,9.2287,9.2941,9.3787,9.4172,9.4595,9.5057,9.548,9.5672,7.0195,7.0976,7.1992,7.1992,7.2656,7.2187,6.789,6.7578,6.6914,6.2461,6.1523,6.2319,6.497,6.5792,6.6953,6.9726,7.2617,7.5,7.6445,7.8672,8.0781,8.2383,8.2422,8.2656,8.3515,8.3594,0.0,8.5781,0.0,0.0,8.6758,8.8164,8.9062,8.9258,8.9922,9.0703,9.1562,9.1562,9.1914,9.2617,9.2617,9.2617,9.2617,9.2617,9.2617,9.2617,9.2617,0.0,0.0,9.2617,9.2617,9.2617,9.2617,9.2617,9.2617,9.2617,9.2617,9.2617,9.2617,9.2617,9.2617,9.2617,9.2617,9.2617,9.2617,9.2617,9.2617,9.2617,9.2617,9.2617,9.2617,9.2617,9.2617,9.2617,9.2617,9.2617,9.2617,9.2617,9.2617,9.2617,9.2617,9.2617,9.2617,9.2617,9.2656,9.2851,9.3476,9.4023,9.4414,9.4801,9.5029,9.4814,9.4172,9.3826,9.398,9.321,9.2672,9.2518,9.1864,9.1402,9.121,9.1364,9.1787,9.2479,9.2864,9.3672,9.498,9.5172,9.5634,9.6288,9.6288,9.6288,7.1406,7.1875,7.1992,7.1992,7.2656,7.2187,6.789,6.7578,6.6953,6.2578,6.1562,6.2343,6.5072,6.4881,6.5234,6.7969,6.9297,7.1133,7.4375,7.6406,7.9023,8.3008,8.2773,8.2656,8.3515,8.3594,8.3984,0.0,0.0,0.0,8.8476,8.9375,9.0234,9.1054,9.1133,9.1601,9.2461,9.2461,9.2539,9.2617,9.2617,9.2617,9.2617,9.2617,9.2617,9.2617,9.2617,0.0,0.0,9.2617,9.2617,9.2617,9.2617,9.2617,9.2617,9.2617,9.2617,9.2617,9.2617,9.2617,9.2617,9.2617,9.2617,9.2617,9.2617,9.2617,9.2617,9.2617,9.2617,9.2617,9.2617,9.2617,9.2617,9.2617,9.2617,9.2617,9.2617,9.2617,9.2617,9.2617,9.2617,9.2617,9.2617,9.2617,9.2851,9.3672,9.3867,9.4453,9.6054,9.6093,9.6285,9.7003,9.5288,9.4287,9.4826,9.4095,9.3287,9.2556,9.2402,9.2018,9.1248,9.1979,9.2402,9.2479,9.398,9.4826,9.498,9.5788,9.6211,9.6288,9.6288,9.6288,6.918,7.082,7.2773,7.2773,7.3047,7.2305,6.8555,6.7969,6.6953,6.2617,6.164,6.2265,6.4414,6.4492,6.4922,6.707,6.9414,7.164,7.3555,7.664,7.9922,8.3203,8.3281,8.3437,8.4297,0.0,8.5742,0.0,0.0,0.0,9.0273,9.0586,9.0937,9.1289,9.1797,9.2265,9.2617,9.2617,9.2617,9.2617,9.2617,9.2617,9.2617,9.2617,9.2617,9.2617,9.2617,0.0,0.0,9.2617,9.2617,9.2617,9.2617,9.2617,9.2617,9.2617,9.2617,9.2617,9.2617,9.2617,9.2617,9.2617,9.2617,9.2617,9.2617,9.2617,9.2617,9.2617,9.2617,9.2617,9.2617,9.2617,9.2617,9.2617,9.2617,9.2617,9.2617,9.2617,9.2617,9.2617,9.2617,9.2617,9.2617,9.2617,9.289,9.3789,9.4336,9.5117,9.6328,9.6836,9.7133,9.7369,9.6328,9.5711,9.5942,9.5057,9.4095,9.3287,9.2749,9.2095,9.1248,9.2056,9.271,9.321,9.4364,9.5249,9.5788,9.6134,9.6288,9.6288,9.6288,9.6288,6.8164,7.0234,7.2734,7.3476,7.3281,7.2109,6.8906,6.7812,6.6328,6.25,6.1719,6.2226,6.3984,6.4297,6.4883,6.6601,6.9336,7.1719,7.3086,7.6562,7.9922,8.2539,8.2812,8.3281,8.4414,8.5781,0.0,0.0,0.0,0.0,9.1679,9.1679,9.1679,9.1679,9.2265,9.2617,9.2617,9.2617,9.2617,9.2617,9.2617,9.2617,9.2617,9.2617,9.2617,9.2617,9.2617,0.0,0.0,9.2617,9.2617,9.2617,9.2617,9.2617,9.2617,9.2617,9.2617,9.2617,9.2617,9.2617,9.2617,9.2617,9.2617,9.2617,9.2617,9.2617,9.2617,9.2617,9.2617,9.2617,9.2617,9.2617,9.2617,9.2617,9.2617,9.2617,9.2617,9.2617,9.2617,9.2617,9.2617,9.2617,9.2617,9.2812,9.3281,9.414,9.5039,9.5898,9.6758,9.7344,9.7656,9.75,9.711,9.6796,9.6632,9.5826,9.5018,9.4134,9.3287,9.2479,9.1633,9.2402,9.3133,9.3672,9.4788,9.5672,9.6288,9.6288,9.6288,9.6288,9.6288,9.6288,6.9492,7.0703,7.1367,7.3945,7.3281,7.1328,6.8789,6.6875,6.4883,6.2226,6.1719,6.2226,6.3984,6.4297,6.4883,6.6601,6.832,7.0312,7.293,7.5586,7.8164,8.0703,8.1015,8.1719,8.3437,8.5976,0.0,0.0,0.0,0.0,9.2539,9.2578,9.2578,9.2578,9.2617,9.2617,9.2617,9.2617,9.2617,9.2617,9.2617,9.2617,9.2617,9.2617,9.2617,0.0,0.0,0.0,0.0,9.2617,9.2617,9.2617,9.2617,9.2617,9.2617,9.2617,9.2617,9.2617,9.2617,9.2617,9.2617,9.2617,9.2617,9.2617,9.2617,9.2617,9.2617,9.2617,9.2617,9.2617,9.2617,9.2617,9.2617,9.2617,9.2617,9.2617,9.2617,9.2617,9.2617,9.2617,9.2617,9.2617,9.2617,9.332,9.4179,9.5078,9.5937,9.6797,9.7578,9.7695,9.7695,9.7695,9.7522,9.7169,9.663,9.6403,9.5903,9.5018,9.4172,9.3326,9.2518,9.3249,9.3672,9.371,9.5403,9.6288,9.6288,9.6288,9.6288,9.6288,9.6288,9.6288,6.6133,6.7617,6.918,7.0039,6.9375,6.8164,6.6758,6.5547,6.414,6.2109,6.1719,6.2226,6.3984,6.4297,6.5078,6.7422,6.8711,7.0508,7.375,7.6445,7.9023,8.1601,8.2422,8.3711,0.0,0.0,0.0,0.0,0.0,0.0,9.2578,9.2617,9.2617,9.2617,9.2617,9.2617,9.2617,9.2617,9.2617,9.2617,9.2617,9.2617,9.2617,9.2617,9.2617,0.0,0.0,0.0,0.0,9.2617,9.2617,9.2617,9.2617,9.2617,9.2617,9.2617,9.2617,9.2617,9.2617,9.2617,9.2617,9.2617,9.2617,9.2617,9.2617,9.2617,9.2617,9.2617,9.2617,9.2617,9.2617,9.2617,9.2617,9.2617,9.2617,9.2617,9.2617,9.2617,9.2617,9.2617,9.2617,9.2773,9.3398,9.3711,9.4414,9.5859,9.6328,9.6797,9.7617,9.7695,9.7695,9.7695,9.7524,9.7277,9.6895,9.6634,9.6057,9.5057,9.4172,9.3326,9.2518,9.3249,9.371,9.371,9.5403,9.6288,9.6288,9.6288,9.6288,9.6288,9.6288,9.6288,6.4687,6.5976,6.7461,6.8398,6.7539,6.6289,6.5703,6.4414,6.3008,6.1914,6.1953,6.2617,6.4023,6.457,6.5742,6.8672,6.9297,7.0742,7.4531,7.6484,7.8476,8.1015,8.2969,0.0,0.0,0.0,0.0,0.0,0.0,0.0,9.2617,9.2617,9.2617,9.2617,9.2617,9.2617,9.2617,9.2617,9.2617,9.2617,9.2617,9.2617,9.2617,9.2617,9.2617,0.0,0.0,0.0,0.0,9.2617,9.2617,9.2617,9.2617,9.2617,9.2617,9.2617,9.2617,9.2617,9.2617,9.2617,9.2617,9.2617,9.2617,9.2617,9.2617,9.2617,9.2617,9.2617,9.2617,9.2617,9.2617,9.2617,9.2617,9.2617,9.2617,9.2617,9.2617,9.2617,9.2617,9.2617,9.2617,9.289,9.375,9.4179,9.4883,9.6289,9.6758,9.7148,9.7656,9.7695,9.7695,9.7695,9.7578,9.7415,9.7182,9.6815,9.6288,9.5634,9.4711,9.3826,9.2979,9.3749,9.4018,9.371,9.5403,9.6288,9.6288,9.6288,9.6288,9.6288,9.6288,9.6288,0.0,6.5312,6.5898,6.8242,6.707,6.5312,6.5312,6.3437,0.0,6.1797,6.2422,6.3281,6.4219,6.5195,6.6914,7.0078,7.0078,7.1133,7.5312,7.6094,7.7187,7.9687,8.2969,0.0,8.6289,0.0,0.0,0.0,0.0,0.0,9.2617,9.2617,9.2617,9.2617,9.2617,9.2617,9.2617,9.2617,9.2617,9.2617,9.2617,9.2617,9.2617,9.2617,9.2617,0.0,0.0,0.0,0.0,9.2617,9.2617,9.2617,9.2617,9.2617,9.2617,9.2617,9.2617,9.2617,9.2617,9.2617,9.2617,9.2617,9.2617,9.2617,9.2617,9.2617,9.2617,9.2617,9.2617,9.2617,9.2617,9.2617,9.2617,9.2617,9.2617,9.2617,9.2617,9.2617,9.2617,9.2617,9.2656,9.2969,9.3828,9.4726,9.5586,9.6445,9.7226,9.7695,9.7695,9.7695,9.7695,9.7695,9.7695,9.7617,9.7422,9.6949,9.663,9.6596,9.5595,9.4595,9.3749,9.4518,9.4595,9.371,9.5403,9.6288,9.6288,9.6288,9.6288,9.6288,9.6288,9.6288,6.2461,0.0,6.2773,6.3359,6.3047,6.2617,0.0,6.2148,6.1875,6.2578,6.2851,6.3476,6.5,6.7109,6.8828,6.957,7.1211,7.3203,7.5586,7.8164,8.0508,8.2461,8.457,8.6484,8.7969,0.0,0.0,0.0,0.0,9.2617,9.2617,9.2617,9.2617,9.2617,9.2617,9.2617,9.2617,9.2617,9.2617,9.2617,9.2617,9.2617,9.2617,9.2617,9.2617,0.0,0.0,0.0,9.2617,9.2617,9.2617,9.2617,9.2617,9.2617,9.2617,9.2617,9.2617,9.2617,9.2617,9.2617,9.2617,9.2617,9.2617,9.2617,9.2617,9.2617,9.2617,9.2617,9.2617,9.2617,9.2617,9.2617,9.2617,9.2617,9.2617,9.2617,9.2617,9.2617,9.2617,9.2617,9.3125,9.3867,9.4726,9.5625,9.6484,9.7304,9.7578,9.7695,9.7695,9.7695,9.7695,9.7695,9.7695,9.7695,9.7617,9.7174,9.6837,9.6594,9.5595,9.4595,9.3749,9.4518,9.4595,9.371,9.5403,9.6288,9.6288,9.6288,9.6288,9.6288,9.6288,9.6288,6.1719,6.1719,6.1719,6.1719,6.1719,6.1797,6.2226,6.2305,6.2539,6.3437,6.3906,6.4609,6.5937,6.7695,6.9687,7.1992,7.3242,7.4765,7.7305,8.0273,8.2539,8.3476,8.582,8.7851,0.0,0.0,0.0,0.0,0.0,9.2617,9.2617,9.2617,9.2617,9.2617,9.2617,9.2617,9.2617,9.2617,9.2617,9.2617,9.2617,9.2617,9.2617,9.2617,9.2617,0.0,0.0,0.0,9.2617,9.2617,9.2617,9.2617,9.2617,9.2617,9.2617,9.2617,9.2617,9.2617,9.2617,9.2617,9.2617,9.2617,9.2617,9.2617,9.2617,9.2617,9.2617,9.2617,9.2617,9.2617,9.2617,9.2617,9.2617,9.2617,9.2617,9.2617,9.2617,9.2617,9.2734,9.3125,9.3594,9.4297,9.5586,9.6172,9.6758,9.7578,9.7695,9.7695,9.7695,9.7695,9.7695,9.7695,9.7695,9.7695,9.7695,9.7382,9.7087,9.6821,9.6095,9.5288,9.4326,9.5134,9.5365,9.4903,9.5826,9.6288,9.6288,9.6288,9.6288,9.6288,9.6288,9.6288,6.1719,6.1719,6.1758,6.2031,6.1992,6.2148,6.3164,6.3281,6.3437,6.4336,6.5312,6.6289,6.7305,6.8633,7.1015,7.539,7.582,7.6601,7.9492,8.2031,8.3633,8.3789,8.6719,0.0,0.0,0.0,0.0,0.0,0.0,9.2617,9.2617,9.2617,9.2617,9.2617,9.2617,9.2617,9.2617,9.2617,9.2617,9.2617,9.2617,9.2617,9.2617,9.2617,9.2617,9.2617,0.0,0.0,9.2617,9.2617,9.2617,9.2617,9.2617,9.2617,9.2617,9.2617,9.2695,9.2812,9.2812,9.2695,9.2617,9.2617,9.2617,9.2617,9.2617,9.2617,9.2617,9.2617,9.2617,9.2617,9.2617,9.2617,9.2617,9.2617,9.2617,9.2656,9.2773,9.2812,9.3047,9.3945,9.4219,9.4765,9.625,9.6601,9.6914,9.7617,9.7695,9.7695,9.7695,9.7695,9.7695,9.7695,9.7695,9.7695,9.7695,9.7539,9.7338,9.7087,9.6749,9.6172,9.5249,9.5788,9.6172,9.6288,9.6288,9.6288,9.6288,9.6288,9.6288,9.6288,9.6288,9.6288,6.1719,6.1719,6.2031,6.3515,6.3359,6.3203,6.4844,6.4648,6.4336,6.5234,6.668,6.8281,6.9844,7.3242,7.6094,7.6875,7.8711,8.0195,8.0742,8.2422,8.3867,8.4609,0.0,0.0,0.0,0.0,0.0,0.0,0.0,9.2617,9.2617,9.2617,9.2617,9.2617,9.2617,9.2617,9.2617,9.2617,9.2617,9.2617,9.2617,9.2617,9.2617,9.2617,9.2617,9.2617,0.0,9.2617,9.2617,9.2617,9.2617,9.2617,9.2617,9.2617,9.2617,9.2617,9.3086,9.3711,9.3711,9.3203,9.2617,9.2617,9.2617,9.2617,9.2617,9.2617,9.2617,9.2617,9.2617,9.2617,9.2617,9.2617,9.2617,9.2617,9.2617,9.2812,9.3554,9.3711,9.3945,9.4844,9.5586,9.6172,9.6445,9.707,9.7578,9.7695,9.7695,9.7695,9.7695,9.7695,9.7695,9.7695,9.7695,9.7695,9.7695,9.7656,9.7572,9.7357,9.6865,9.6442,9.6095,9.5518,9.5557,9.6288,9.6288,9.6288,9.6288,9.6288,9.6288,9.6288,9.6288,9.6288,6.1719,6.1719,6.2578,6.6211,6.6094,6.5547,6.7305,6.8476,6.875,6.7305,6.875,7.0625,7.1875,7.375,7.6172,7.9414,8.1719,8.3437,8.4375,8.4804,8.5508,0.0,0.0,0.0,0.0,0.0,0.0,0.0,0.0,0.0,9.2617,9.2617,9.2617,9.2617,9.2617,9.2617,9.2617,9.2617,9.2617,9.2617,9.2617,9.2617,9.2617,9.2617,9.2617,9.2617,0.0,9.2617,9.2617,9.2617,9.2617,9.2617,9.2617,9.2617,9.2617,9.2617,9.3164,9.3828,9.3359,9.3242,9.3203,9.2734,9.2617,9.2617,9.2617,9.2617,9.2617,9.2617,9.2617,9.2617,9.2617,9.2617,9.2734,9.3203,9.3281,9.3554,9.4414,9.4609,9.4844,9.5742,9.6211,9.664,9.707,9.7461,9.7695,9.7695,9.7695,9.7695,9.7695,9.7695,9.7695,9.7695,9.7695,9.7695,9.7695,9.7695,9.755,9.72,9.6801,9.6711,9.6942,9.6134,9.6095,9.6942,9.6519,9.6288,9.6288,9.6288,9.6288,9.6288,9.6288,9.6288,6.1797,6.2148,6.3672,6.8086,6.8047,6.7617,7.0351,7.2344,7.2851,7.0234,7.1758,7.3711,7.4375,7.5,7.6992,8.1836,8.4062,8.5742,8.7265,0.0,0.0,0.0,0.0,0.0,0.0,0.0,0.0,0.0,0.0,0.0,9.2617,9.2617,9.2617,9.2617,9.2617,9.2617,9.2617,9.2617,9.2617,9.2617,9.2617,9.2617,9.2617,9.2617,9.2617,9.2617,9.2617,9.2617,9.2617,9.2617,9.2617,9.2617,9.2617,9.2617,9.2617,9.2812,9.3203,9.3515,9.3086,9.3203,9.3476,9.2812,9.2617,9.2617,9.2617,9.2617,9.2617,9.2617,9.2734,9.2851,9.2656,9.2734,9.3086,9.375,9.4062,9.4453,9.5312,9.5508,9.5742,9.6601,9.6797,9.6992,9.7578,9.7695,9.7695,9.7695,9.7695,9.7695,9.7695,9.7695,9.7695,9.7695,9.7695,9.7695,9.7695,9.7695,9.7598,9.7422,9.7151,9.7173,9.7596,9.6942,9.6865,9.748,9.6711,9.6288,9.6288,9.6288,9.6288,9.6288,9.6288,9.6288,6.2148,6.3476,6.5781,6.7812,6.7578,6.8398,7.414,7.4961,7.4453,7.418,7.6211,7.8047,7.8125,8.0078,8.207,8.3281,8.4961,8.6445,8.7383,0.0,0.0,0.0,0.0,0.0,0.0,0.0,0.0,0.0,0.0,0.0,9.2617,9.2617,9.2617,9.2617,9.2617,9.2617,9.2617,9.2617,9.2617,9.2617,9.2617,9.2617,9.2617,9.2617,9.2617,9.2617,9.2617,9.2617,9.2617,9.2617,9.2617,9.2617,9.2617,9.2617,9.2695,9.3515,9.332,9.2812,9.3554,9.332,9.2695,9.2617,9.2617,9.2617,9.2617,9.2617,9.2617,9.2617,9.3164,9.3633,9.2812,9.3203,9.3828,9.3906,9.4531,9.5351,9.6211,9.6406,9.664,9.7461,9.7617,9.7617,9.7695,9.7695,9.7695,9.7695,9.7695,9.7695,9.7695,9.7695,9.7695,9.7695,9.7695,9.7695,9.7695,9.7695,9.7968,9.8552,9.8309,9.8096,9.7904,9.7596,9.7442,9.7519,9.6711,9.6288,9.6288,9.6288,9.6288,9.6288,9.6288,9.6288,6.2539,6.4414,6.7344,7.1211,7.1523,7.1601,7.4453,7.6914,7.7969,7.5859,7.789,8.0234,8.0742,8.2109,8.375,8.5703,8.6133,8.707,0.0,0.0,0.0,0.0,0.0,0.0,0.0,0.0,0.0,0.0,0.0,0.0,0.0,9.2617,9.2617,9.2617,9.2617,9.2617,9.2617,9.2617,9.2617,9.2617,9.2617,9.2617,9.2617,9.2617,9.2617,9.2617,9.2617,9.2617,9.2617,9.2617,9.2617,9.2617,9.2617,9.2617,9.2695,9.3594,9.3672,9.3476,9.3789,9.3672,9.332,9.2773,9.2617,9.2695,9.3242,9.3398,9.3515,9.4062,9.4453,9.4492,9.3633,9.4062,9.4844,9.539,9.5781,9.625,9.707,9.7265,9.7344,9.7656,9.7695,9.7695,9.7695,9.7695,9.7695,9.7695,9.7695,9.7695,9.7695,9.7695,9.7695,9.7695,9.7695,9.7695,9.7695,9.7695,9.8047,9.8828,9.8665,9.8836,9.9518,9.8904,9.8481,9.8327,9.748,9.6788,9.6288,9.6288,9.6288,9.6288,9.6288,9.6288,6.289,6.5508,6.8867,7.2148,7.375,7.4765,7.5625,7.789,7.9375,7.7812,8.0039,8.2344,8.2656,8.3203,0.0,0.0,8.6836,0.0,0.0,0.0,0.0,0.0,0.0,0.0,0.0,0.0,0.0,0.0,0.0,0.0,0.0,9.2617,9.2617,9.2617,9.2617,9.2617,9.2617,9.2617,9.2617,9.2617,9.2617,9.2617,9.2617,9.2617,9.2617,9.2617,9.2617,9.2617,9.2617,9.2617,9.2617,9.2617,9.2617,9.2617,9.2656,9.3281,9.3476,9.3476,9.3476,9.3672,9.3867,9.3515,9.3594,9.3945,9.4531,9.4726,9.4804,9.5117,9.539,9.5469,9.4883,9.5156,9.5742,9.6367,9.6679,9.7031,9.7578,9.7695,9.7695,9.7695,9.7695,9.7695,9.7695,9.7695,9.7695,9.7695,9.7695,9.7695,9.7695,9.7695,9.7695,9.7695,9.7695,9.7812,9.8086,9.8125,9.8594,9.9765,9.9687,9.9931,10.069,9.9999,9.9404,9.8942,9.798,9.7096,9.6288,9.6288,9.6288,9.6288,9.6288,9.6288,6.3281,6.6836,7.0586,6.9726,7.3398,7.7461,7.8359,7.7851,7.793,8.0469,8.3086,8.4648,8.3789,8.3633,0.0,8.5937,8.6953,0.0,0.0,0.0,0.0,0.0,0.0,0.0,0.0,0.0,0.0,0.0,0.0,0.0,0.0,9.2617,9.2617,9.2617,9.2617,9.2617,9.2617,9.2617,9.2617,9.2617,9.2617,9.2617,9.2617,9.2617,9.2617,9.2617,9.2617,9.2617,9.2617,9.2617,9.2617,9.2617,9.2617,9.2617,9.2617,9.2656,9.2656,9.2617,9.2656,9.3203,9.4062,9.4922,9.582,9.6523,9.6523,9.6523,9.6328,9.5508,9.5859,9.6523,9.6523,9.6523,9.6523,9.6523,9.7109,9.7695,9.7695,9.7695,9.7695,9.7695,9.7695,9.7695,9.7695,9.7695,9.7695,9.7695,9.7695,9.7695,9.7695,9.7695,9.7695,9.7695,9.7695,9.8047,9.8945,9.8984,9.9726,10.1484,10.1601,10.1484,10.1211,10.0677,10.0019,9.925,9.8096,9.7096,9.6288,9.6288,9.6288,9.6288,9.6288,9.6288,6.8008,7.2226,7.625,7.6562,7.8281,8.0117,8.0976,8.0039,7.9336,8.0703,8.3554,8.5547,8.4687,8.5039,0.0,0.0,0.0,0.0,0.0,0.0,0.0,0.0,0.0,0.0,0.0,0.0,0.0,0.0,0.0,0.0,0.0,9.2617,9.2617,9.2617,9.2617,9.2617,9.2617,9.2617,9.2617,9.2617,9.2617,9.2617,9.2617,9.2617,9.2617,9.2617,9.2617,9.2617,9.2617,9.2617,9.2617,9.2656,9.3281,9.3515,9.3711,9.5547,9.5429,9.4687,9.6484,9.6484,9.5859,9.6679,9.7148,9.7461,9.8086,9.7812,9.7539,9.8515,9.8086,9.75,9.8086,9.7812,9.7344,9.7344,9.7539,9.7695,9.7695,9.7695,9.7695,9.7695,9.7695,9.7695,9.7695,9.7695,9.7695,9.7695,9.7695,9.7695,9.7695,9.7695,9.7695,9.7695,9.7695,9.8047,9.8945,9.8984,9.9726,10.1484,10.1601,10.1797,10.2109,10.2015,10.0981,9.9211,9.8865,9.7904,9.6288,9.6288,9.6288,9.6288,9.6288,9.6288,6.9375,7.4023,7.8633,7.9101,8.0898,8.2617,8.2773,8.1992,8.1406,8.1914,8.4531,8.664,8.6445,8.6836,0.0,0.0,0.0,0.0,0.0,0.0,0.0,0.0,0.0,0.0,0.0,0.0,0.0,0.0,0.0,0.0,0.0,9.2617,0.0,0.0,9.2617,9.2617,9.2617,9.2617,9.2617,9.2617,9.2617,9.2617,9.2617,9.2617,9.2617,9.2617,9.2969,9.3125,9.3125,9.3476,9.3633,9.3672,9.4219,9.4414,9.4609,9.6133,9.6289,9.5937,9.7461,9.7773,9.7617,9.8476,9.8984,9.9297,9.9453,9.914,9.8828,9.9179,9.8515,9.7812,9.8359,9.8086,9.7695,9.7695,9.7695,9.7695,9.7695,9.7695,9.7695,9.7695,9.7695,9.7695,9.7695,9.7695,9.7695,9.7695,9.7695,9.7695,9.7695,9.7695,9.7695,9.7695,9.7695,9.8047,9.8945,9.8984,9.9609,10.1015,10.1094,10.1211,10.1601,10.2187,10.1703,9.9996,9.9448,9.8441,9.6903,9.6519,9.6288,9.6288,9.6288,9.6288,6.8867,7.3633,7.8789,7.8906,8.2031,8.4804,8.4023,8.3945,8.3984,8.3672,0.0,8.7812,8.8476,8.8789,0.0,0.0,0.0,0.0,0.0,0.0,0.0,0.0,0.0,0.0,0.0,0.0,0.0,0.0,0.0,0.0,0.0,0.0,0.0,9.2617,9.2617,9.2617,9.2617,9.2617,9.2656,0.0,9.2734,9.2773,9.2812,9.2734,9.2773,9.289,9.3672,9.4023,9.4062,9.4883,9.5195,9.5234,9.5351,9.5429,9.5469,9.5703,9.6211,9.6875,9.7031,9.7969,9.9258,10.0117,10.0898,10.1289,10.0508,10.0195,9.9883,9.8359,9.7812,9.7734,9.7812,9.7773,9.7695,9.7695,9.7695,9.7695,9.7695,9.7695,9.7695,9.7695,9.7695,9.7695,9.7695,9.7695,9.7695,9.7695,9.7695,9.7695,9.7695,9.7695,9.7695,9.7695,9.7695,9.8047,9.8945,9.8984,9.9375,10.0195,10.0312,10.0312,10.0312,10.1719,10.1992,10.1094,9.9902,9.8854,9.7941,9.6826,9.6326,9.6326,9.6326,9.6288,7.2344,7.6758,8.0781,8.2148,8.4219,8.5859,8.5664,8.664,8.6836,8.414,8.6172,8.8281,8.7851,0.0,0.0,0.0,0.0,0.0,0.0,0.0,0.0,0.0,0.0,0.0,0.0,0.0,0.0,0.0,0.0,0.0,0.0,0.0,0.0,9.2617,9.2617,9.2617,9.2617,9.2617,9.2929,0.0,9.3633,9.3984,9.4609,9.3945,9.3984,9.4648,9.4844,9.4922,9.4922,9.5117,9.5195,9.5312,9.664,9.7148,9.7422,9.9453,9.9922,9.9687,10.1015,10.0898,10.0195,10.1015,10.1015,10.0508,10.039,9.9804,9.9336,9.9648,9.875,9.7851,9.8554,9.8203,9.7695,9.7695,9.7695,9.7695,9.7695,9.7695,9.7695,9.7695,9.7695,9.7695,9.7695,9.7695,9.7695,9.7695,9.7695,9.7695,9.7695,9.7695,9.7695,9.7695,9.7695,9.8047,9.8945,9.8984,9.9375,10.0195,10.0312,10.0312,10.0312,10.1289,10.1289,10.0195,9.9893,9.9246,9.821,9.7094,9.6519,9.6519,9.6365,9.6288,7.2617,7.7109,8.1719,8.4726,8.5859,8.6406,8.7226,8.8086,8.8437,8.7461,8.8359,8.9336,0.0,0.0,0.0,0.0,0.0,0.0,0.0,0.0,0.0,0.0,0.0,0.0,0.0,0.0,0.0,0.0,0.0,0.0,0.0,9.2617,9.2617,9.2617,9.2617,9.2617,9.2617,9.3008,9.3437,9.3906,9.4336,9.4961,9.5781,9.4922,9.4765,9.5234,9.5625,9.582,9.5859,9.625,9.6406,9.6523,9.7812,9.832,9.8554,10.0312,10.1015,10.1015,10.1484,10.1289,10.0898,10.1015,10.0703,10.0195,9.9804,9.9375,9.9023,9.9023,9.8398,9.7812,9.8242,9.8047,9.7695,9.7695,9.7695,9.7695,9.7695,9.7695,9.7695,9.7695,9.7695,9.7695,9.7695,9.7695,9.7695,9.7695,9.7695,9.7695,9.7695,9.7695,9.7695,9.7695,9.7695,9.789,9.8359,9.8398,9.8554,9.9023,9.9453,9.9687,9.9687,10.0898,10.1289,10.0703,10.0195,9.9608,9.9055,9.7561,9.6731,9.6596,9.648,9.6403,7.1015,7.6055,8.2031,8.6406,8.6953,8.6836,8.8359,8.8828,8.9375,9.0976,9.0742,9.0508,0.0,0.0,0.0,0.0,0.0,0.0,0.0,0.0,0.0,0.0,0.0,0.0,0.0,0.0,0.0,0.0,0.0,0.0,9.2617,9.2617,9.2617,9.2617,9.2734,9.2812,9.2812,9.3672,9.4219,9.4375,9.5234,9.6015,9.6679,9.5976,9.5625,9.5664,9.6406,9.6719,9.6758,9.7578,9.7929,9.8047,9.9062,9.9453,9.9531,10.039,10.1094,10.1484,10.0781,10.0781,10.1015,10.0312,9.9961,9.9726,9.8984,9.8789,9.8633,9.789,9.7695,9.7695,9.7695,9.7695,9.7695,9.7695,9.7695,9.7695,9.7695,9.7695,9.7695,9.7695,9.7695,9.7695,9.7695,9.7695,9.7695,9.7695,9.7695,9.7695,9.7695,9.7695,9.7695,9.7695,9.7695,9.7695,9.7695,9.7695,9.7695,9.7695,9.8515,9.8984,9.8984,10.0703,10.1601,10.1601,10.0703,10.0117,9.9961,9.8168,9.7129,9.6761,9.6625,9.6519,6.8047,7.4726,8.2031,8.6406,8.7422,8.7578,8.8476,8.9297,9.0117,0.0,9.1211,0.0,0.0,0.0,0.0,0.0,0.0,0.0,0.0,0.0,0.0,0.0,0.0,0.0,0.0,0.0,0.0,0.0,0.0,0.0,9.2617,9.2617,9.2617,9.2617,9.332,9.3711,9.3711,9.4609,9.539,9.6172,9.6992,9.7422,9.7539,9.7422,9.7383,9.7383,9.75,9.7539,9.7617,9.8476,9.8828,9.8984,10.0586,10.1289,10.1406,10.2187,10.2109,10.1601,10.1484,10.0508,9.9336,9.9219,9.8672,9.8047,9.789,9.7851,9.7851,9.7734,9.7695,9.7695,9.7695,9.7695,9.7695,9.7695,9.7695,9.7695,9.7695,9.7695,9.7695,9.7695,9.7695,9.7695,9.7695,9.7695,9.7695,9.7695,9.7695,9.7695,9.7695,9.7695,9.7695,9.7695,9.7695,9.7695,9.7695,9.7695,9.7695,9.7695,9.8515,9.8984,9.8984,10.0703,10.1601,10.1601,10.1484,10.1015,10.0195,9.9058,9.8074,9.7271,9.6837,9.6596,6.9101,7.5547,8.1797,8.5195,8.6797,8.7851,8.914,8.9726,9.0234,9.1133,9.1679,0.0,0.0,0.0,0.0,0.0,0.0,0.0,0.0,0.0,0.0,0.0,0.0,0.0,0.0,0.0,0.0,0.0,0.0,9.2617,9.2617,9.2617,9.2812,9.332,9.3711,9.414,9.4609,9.5508,9.6367,9.7187,9.7539,9.7695,9.7695,9.7695,9.7695,9.7734,9.8203,9.8437,9.8515,9.9375,9.9726,9.9844,10.1094,10.1289,10.1015,10.1914,10.1601,10.0781,10.0312,9.9648,9.8906,9.8437,9.8008,9.7695,9.7695,9.7695,9.7695,9.7695,9.7695,9.7695,9.7695,9.7695,9.7695,9.7695,9.7695,9.7695,9.7695,9.7695,9.7695,9.7695,9.7695,9.7695,9.7695,9.7695,9.7695,9.7695,9.7695,9.7695,9.7695,9.7695,9.7695,9.7695,9.7695,9.7695,9.7695,9.7695,9.789,9.8398,9.9258,9.9961,10.039,10.1719,10.2304,10.2304,10.1797,10.1211,10.0312,9.9336,9.8359,9.7382,9.7171,9.6975,7.0156,7.5273,7.9883,8.3359,8.539,8.707,8.9179,8.9844,9.0234,0.0,0.0,0.0,0.0,0.0,0.0,0.0,0.0,0.0,0.0,0.0,0.0,0.0,0.0,0.0,0.0,0.0,0.0,0.0,0.0,9.2617,9.2617,9.2812,9.3242,9.3867,9.4336,9.4883,9.5508,9.6367,9.7109,9.7695,9.7695,9.7695,9.7695,9.7929,9.8047,9.8086,9.8711,9.8984,9.9062,10.0195,10.0508,10.039,10.1289,10.1094,10.039,10.1015,10.0703,9.9883,9.9219,9.8867,9.8554,9.789,9.7695,9.7695,9.7695,9.7695,9.7695,9.7695,9.7695,9.7695,9.7695,9.7695,9.7695,9.7695,9.7695,9.7695,9.7695,9.7695,9.7695,9.7695,9.7695,9.7695,9.7695,9.7695,9.7695,9.7695,9.7695,9.7695,9.7695,9.7695,9.7695,9.7695,9.7695,9.7695,9.7695,9.7695,9.8086,9.8945,9.9804,10.0703,10.1601,10.2383,10.289,10.289,10.2304,10.1406,10.0312,9.9648,9.8672,9.7461,9.7422,9.7277,6.957,7.2187,7.5117,8.0976,8.3125,8.4687,8.8008,8.9414,9.0234,9.1133,0.0,0.0,0.0,0.0,0.0,0.0,0.0,0.0,0.0,0.0,0.0,0.0,0.0,0.0,0.0,0.0,0.0,0.0,0.0,9.2617,9.2617,9.3398,9.3867,9.3906,9.5508,9.6406,9.6445,9.7226,9.7656,9.7695,9.7695,9.7695,9.7734,9.8554,9.8945,9.8945,9.8984,9.8984,9.914,10.0781,10.1015,10.039,10.1289,10.1094,10.0312,10.039,9.9804,9.9062,9.9023,9.8476,9.7773,9.7695,9.7695,9.7695,9.7695,9.7695,9.7695,9.7695,9.7695,9.7695,9.7695,9.7695,9.7695,9.7695,9.7695,9.7695,9.7695,9.7695,9.7695,9.7695,9.7695,9.7695,9.7695,9.7695,9.7695,9.7695,9.7695,9.7695,9.7695,9.7695,9.7695,9.7695,9.7695,9.7695,9.7695,9.7695,9.8086,9.8945,9.9804,10.0703,10.1601,10.2383,10.289,10.289,10.289,10.1992,10.0312,10.0312,9.9336,9.7695,9.75,9.7409,6.6719,6.9883,7.3398,7.7226,8.0078,8.2383,8.4179,8.6562,8.8476,8.8789,0.0,0.0,0.0,0.0,0.0,0.0,0.0,0.0,0.0,0.0,0.0,0.0,0.0,0.0,0.0,0.0,0.0,0.0,0.0,0.0,9.2617,9.3437,9.414,9.4726,9.5898,9.6758,9.7265,9.7578,9.7695,9.7695,9.7695,9.7695,9.7695,9.8008,9.8164,9.8203,9.875,9.9336,9.9883,10.0508,10.0586,10.0312,10.0586,10.0195,9.9453,9.9453,9.8906,9.8164,9.8164,9.7969,9.7695,9.7695,9.7695,9.7695,9.7695,9.7695,9.7695,9.7695,9.7695,9.7695,9.7695,9.7695,9.7695,9.7695,9.7695,9.7695,9.7695,9.7695,9.7695,9.7695,9.7695,9.7695,9.7695,9.7695,9.7695,9.7695,9.7695,9.7695,9.7695,9.7695,9.7695,9.7695,9.7695,9.7695,9.7695,9.8203,9.8906,9.9765,10.0703,10.1484,10.2383,10.2695,10.289,10.289,10.289,10.2304,10.1094,10.0586,9.9687,9.8515,9.789,9.7572,6.4765,6.7656,7.1055,7.4219,7.6953,7.9375,8.1406,8.4336,8.6719,8.6992,0.0,0.0,0.0,0.0,0.0,0.0,0.0,0.0,0.0,0.0,0.0,0.0,0.0,0.0,0.0,0.0,0.0,0.0,0.0,0.0,9.3008,9.3867,9.4844,9.6015,9.6601,9.7148,9.7695,9.7695,9.7695,9.7695,9.7695,9.7695,9.7695,9.8008,9.8125,9.8164,9.875,9.9336,9.9883,10.0195,10.0117,9.9844,9.9844,9.9336,9.8554,9.8554,9.8203,9.7695,9.7695,9.7695,9.7695,9.7695,9.7695,9.7695,9.7695,9.7695,9.7695,9.7695,9.7695,9.7695,9.7695,9.7695,9.7695,9.7695,9.7695,9.7695,9.7695,9.7695,9.7695,9.7695,9.7695,9.7695,9.7695,9.7695,9.7695,9.7695,9.7695,9.7695,9.7695,9.7695,9.7695,9.7695,9.7695,9.7695,9.7695,9.8515,9.9375,10.0195,10.1094,10.1992,10.289,10.289,10.289,10.289,10.289,10.2617,10.1992,10.1211,10.0117,9.8984,9.8398,9.7969,0.0,0.0,0.0,7.2109,7.3828,7.5625,7.9844,8.2851,8.5039,8.5976,0.0,0.0,0.0,0.0,0.0,0.0,0.0,0.0,0.0,0.0,0.0,0.0,0.0,0.0,0.0,0.0,0.0,0.0,0.0,9.2969,9.3867,9.4765,9.5976,9.7656,9.7695,9.7695,9.7695,9.7695,9.7695,9.7695,9.7695,9.7695,9.7734,9.8594,9.8945,9.8945,9.8945,9.8945,9.9023,9.9883,9.9726,9.8945,9.8945,9.8437,9.7695,9.7695,9.7695,9.7695,9.7695,9.7695,9.7695,9.7695,9.7695,9.7695,9.7695,9.7695,9.7695,9.7695,9.7695,9.7695,9.7695,9.7695,9.7695,9.7695,9.7695,9.7695,9.7695,9.7695,9.7695,9.7695,9.7695,9.7695,9.7695,9.7695,9.7695,9.7695,9.7695,9.7695,9.7695,9.7695,9.7695,9.7695,9.7695,9.7695,9.7734,9.8554,9.9414,10.0312,10.1211,10.1992,10.289,10.289,10.289,10.289,10.289,10.289,10.289,10.1992,10.0703,9.9023,9.8984,9.8515,6.3906,0.0,0.0,0.0,0.0,0.0,0.0,7.8828,8.1914,8.4687,8.7031,0.0,0.0,0.0,0.0,0.0,0.0,0.0,0.0,0.0,0.0,0.0,0.0,0.0,0.0,0.0,0.0,0.0,9.2617,9.2969,9.3867,9.5312,9.6601,9.7656,9.7695,9.7695,9.7695,9.7695,9.7695,9.7695,9.7695,9.7695,9.7695,9.7969,9.8047,9.8047,9.8047,9.8047,9.8086,9.832,9.8281,9.8047,9.8047,9.789,9.7695,9.7695,9.7695,9.7695,9.7695,9.7695,9.7695,9.7695,9.7695,9.7695,9.7695,9.7695,9.7695,9.7695,9.7695,9.7695,9.7695,9.7695,9.7695,9.7695,9.7695,9.7695,9.7695,9.7695,9.7695,9.7695,9.7695,9.7695,9.7695,9.7695,9.7695,9.7695,9.7695,9.7695,9.7695,9.7695,9.7695,9.7695,9.7695,9.7969,9.8594,9.9453,10.0312,10.1211,10.2109,10.2617,10.289,10.289,10.289,10.289,10.289,10.289,10.289,10.1992,10.1015,9.9922,9.8633,9.7929,6.4023,6.4922,6.6015,6.7773,0.0,0.0,0.0,0.0,0.0,0.0,8.4609,0.0,0.0,0.0,0.0,0.0,0.0,0.0,0.0,0.0,0.0,0.0,0.0,0.0,0.0,0.0,0.0,9.2617,9.2617,9.3125,9.4375,9.5742,9.6875,9.7656,9.7695,9.7695,9.7695,9.7695,9.7695,9.7695,9.7695,9.7695,9.7695,9.7695,9.7695,9.7695,9.7695,9.7695,9.7695,9.7695,9.7695,9.7695,9.7695,9.7695,9.7695,9.7695,9.7695,9.7695,9.7695,9.7695,9.7695,9.7695,9.7695,9.7695,9.7695,9.7695,9.7695,9.7695,9.7695,9.7695,9.7695,9.7695,9.7695,9.7695,9.7695,9.7695,9.7695,9.7695,9.7695,9.7695,9.7695,9.7695,9.7695,9.7695,9.7695,9.7695,9.7695,9.7695,9.7695,9.7695,9.7695,9.7695,9.7695,9.8047,9.8945,9.9804,10.0703,10.1484,10.2383,10.289,10.289,10.289,10.289,10.289,10.289,10.289,10.289,10.2383,10.1484,10.0312,9.8867,9.8047,6.4414,6.5,6.6015,6.7656,0.0,0.0,0.0,0.0,0.0,0.0,0.0,0.0,0.0,0.0,0.0,0.0,0.0,0.0,0.0,0.0,0.0,0.0,0.0,0.0,0.0,9.2617,9.2617,9.2617,9.2695,9.3437,9.4961,9.5976,9.6836,9.7539,9.7656,9.7695,9.7695,9.7695,9.7695,9.7695,9.7695,9.7695,9.7695,9.7695,9.7695,9.7695,9.7695,9.7695,9.7695,9.7695,9.7695,9.7695,9.7695,9.7695,9.7695,9.7695,9.7695,9.7695,9.7695,9.7695,9.7695,9.7695,9.7695,9.7695,9.7695,9.7695,9.7695,9.7695,9.7695,9.7695,9.7695,9.7695,9.7695,9.7695,9.7695,9.7695,9.7695,9.7695,9.7695,9.7695,9.7695,9.7695,9.7695,9.7695,9.7695,9.7695,9.7695,9.7695,9.7695,9.7695,9.7695,9.7695,9.7695,9.8086,9.9062,9.9844,10.0703,10.1719,10.25,10.289,10.289,10.289,10.289,10.289,10.289,10.289,10.289,10.2812,10.1992,10.039,9.9453,9.8594,0.0,0.0,0.0,0.0,0.0,0.0,0.0,7.2383,7.3984,0.0,7.8672,0.0,0.0,0.0,0.0,0.0,0.0,0.0,0.0,0.0,0.0,0.0,0.0,0.0,0.0,9.2617,9.2617,9.2617,9.3242,9.3789,9.414,9.5664,9.6562,9.6719,9.7344,9.7695,9.7695,9.7695,9.7695,9.7695,9.7695,9.7695,9.7695,9.7695,9.7695,9.7695,9.7695,9.7695,9.7695,9.7695,9.7695,9.7695,9.7695,9.7695,9.7695,9.7695,9.7695,9.7695,9.7695,9.7695,9.7695,9.7695,9.7695,9.7695,9.7695,9.7695,9.7695,9.7695,9.7695,9.7695,9.7695,9.7695,9.7695,9.7695,9.7695,9.7695,9.7695,9.7695,9.7695,9.7695,9.7695,9.7695,9.7695,9.7695,9.7695,9.7695,9.7695,9.7695,9.7695,9.7695,9.7695,9.7695,9.7695,9.8359,9.9922,10.0195,10.1015,10.25,10.2812,10.289,10.289,10.289,10.289,10.289,10.289,10.289,10.289,10.2187,10.1719,10.1289,9.9726,9.8906,0.0,0.0,0.0,6.6797,0.0,0.0,0.0,0.0,7.2461,7.6406,7.6172,7.6328,0.0,0.0,0.0,0.0,0.0,0.0,0.0,0.0,0.0,0.0,0.0,0.0,0.0,9.3242,9.3086,9.2617,9.3008,9.3437,9.3867,9.5156,9.6054,9.6484,9.7265,9.7695,9.7695,9.7695,9.7695,9.7695,9.7695,9.7695,9.7695,9.7695,9.7695,9.7695,9.7695,9.7695,9.7695,9.7695,9.7695,9.7695,9.7695,9.7695,9.7695,9.7695,9.7695,9.7695,9.7695,9.7695,9.7695,9.7695,9.7695,9.7695,9.7695,9.7695,9.7695,9.7695,9.7695,9.7695,9.7695,9.7695,9.7695,9.7695,9.7695,9.7695,9.7695,9.7695,9.7695,9.7695,9.7695,9.7695,9.7695,9.7695,9.7695,9.7695,9.7695,9.7695,9.7695,9.7695,9.7695,9.7695,9.7695,9.8242,9.9531,10.0117,10.0898,10.2187,10.2695,10.289,10.289,10.289,10.289,10.289,10.289,10.289,10.289,10.25,10.1992,10.1601,10.0703,10.0117,0.0,0.0,0.0,0.0,0.0,6.7969,0.0,0.0,0.0,0.0,0.0,0.0,0.0,0.0,0.0,0.0,0.0,0.0,0.0,0.0,0.0,0.0,0.0,0.0,0.0,9.3906,9.4023,9.3164,9.3086,9.332,9.3867,9.4726,9.5508,9.6211,9.7187,9.7695,9.7695,9.7695,9.7695,9.7695,9.7695,9.7695,9.7695,9.7695,9.7695,9.7695,9.7695,9.7695,9.7695,9.7695,9.7695,9.7695,9.7695,9.7695,9.7695,9.7695,9.7695,9.7695,9.7695,9.7695,9.7695,9.7695,9.7695,9.7695,9.7695,9.7695,9.7695,9.7695,9.7695,9.7695,9.7695,9.7695,9.7695,9.7695,9.7695,9.7695,9.7695,9.7695,9.7695,9.7695,9.7695,9.7695,9.7695,9.7695,9.7695,9.7695,9.7695,9.7695,9.7695,9.7695,9.7695,9.7695,9.7695,9.8125,9.914,9.9883,10.0703,10.1797,10.25,10.289,10.289,10.289,10.289,10.289,10.289,10.289,10.289,10.289,10.25,10.1797,10.1719,10.1211,0.0,0.0,0.0,0.0,6.7265,0.0,0.0,0.0,0.0,0.0,0.0,0.0,0.0,0.0,0.0,0.0,0.0,0.0,0.0,0.0,0.0,0.0,0.0,0.0,0.0,0.0,9.5859,9.4961,9.4883,9.4609,9.3945,9.4726,9.5234,9.5351,9.6875,9.7695,9.7695,9.7695,9.7695,9.7695,9.7695,9.7695,9.7695,9.7695,9.7695,9.7695,9.7695,9.7695,9.7695,9.7695,9.7695,9.7695,9.7695,9.7695,9.7695,9.7695,9.7695,9.7695,9.7695,9.7695,9.7695,9.7695,9.7695,9.7695,9.7695,9.7695,9.7695,9.7695,9.7695,9.7695,9.7695,9.7695,9.7695,9.7695,9.7695,9.7695,9.7695,9.7695,9.7695,9.7695,9.7695,9.7695,9.7695,9.7695,9.7695,9.7695,9.7695,9.7695,9.7695,9.7695,9.7695,9.7695,9.7695,9.8359,10.0,10.0195,10.1015,10.2617,10.2812,10.289,10.289,10.289,10.289,10.289,10.289,10.289,10.289,10.289,10.2812,10.2695,10.1992,10.1484,0.0,0.0,0.0,0.0,0.0,0.0,6.8982,0.0,6.8906,0.0,0.0,0.0,0.0,0.0,0.0,0.0,0.0,0.0,0.0,0.0,0.0,0.0,0.0,0.0,0.0,0.0,0.0,0.0,0.0,9.2773,9.2422,9.4648,9.5937,9.5937,9.7109,9.7695,9.7695,9.7695,9.7695,9.7695,9.7695,9.7695,9.7695,9.7695,9.7695,9.7695,9.7695,9.7695,9.7695,9.7695,9.7695,9.7695,9.7695,9.7695,9.7695,9.7695,9.7695,9.7695,9.7695,9.7695,9.7695,9.7695,9.7695,9.7695,9.7695,9.7695,9.7695,9.7695,9.7695,9.7695,9.7695,9.7695,9.7695,9.7695,9.7695,9.7695,9.7695,9.7695,9.7695,9.7695,9.7695,9.7695,9.7695,9.7695,9.7695,9.7695,9.7695,9.7695,9.7695,9.7695,9.7695,9.7695,9.7695,9.8203,9.9453,10.0,10.0781,10.2109,10.2617,10.289,10.289,10.289,10.289,10.289,10.289,10.289,10.289,10.289,10.289,10.289,10.25,10.2383,7.461,0.0,0.0,0.0,0.0,0.0,0.0,0.0,0.0,0.0,0.0,0.0,0.0,0.0,0.0,0.0,0.0,0.0,0.0,0.0,0.0,0.0,0.0,0.0,0.0,0.0,0.0,0.0,0.0,0.0,9.1289,9.3945,9.5664,9.6133,9.7148,9.7695,9.7695,9.7695,9.7695,9.7695,9.7695,9.7695,9.7695,9.7695,9.7695,9.7695,9.7695,9.7695,9.7695,9.7695,9.7695,9.7695,9.7695,9.7695,9.7695,9.7695,9.7695,9.7695,9.7695,9.7695,9.7695,9.7695,9.7695,9.7695,9.7695,9.7695,9.7695,9.7695,9.7695,9.7695,9.7695,9.7695,9.7695,9.7695,9.7695,9.7695,9.7695,9.7695,9.7695,9.7695,9.7695,9.7695,9.7695,9.7695,9.7695,9.7695,9.7695,9.7695,9.7695,9.7695,9.7695,9.7695,9.789,9.8398,9.9297,10.0195,10.1015,10.1914,10.2617,10.289,10.289,10.289,10.289,10.289,10.289,10.289,10.289,10.289,10.289,10.289,10.289,10.289,0.0,0.0,0.0,7.6002,0.0,0.0,0.0,0.0,6.8916,0.0,0.0,0.0,0.0,0.0,0.0,0.0,0.0,0.0,0.0,0.0,0.0,0.0,0.0,0.0,0.0,0.0,0.0,0.0,0.0,0.0,9.125,9.2226,9.3515,9.5195,9.6836,9.7695,9.7695,9.7695,9.7695,9.7695,9.7695,9.7695,9.7695,9.7695,9.7695,9.7695,9.7695,9.7695,9.7695,9.7695,9.7695,9.7695,9.7695,9.7695,9.7695,9.7695,9.7695,9.7695,9.7695,9.7695,9.7695,9.7695,9.7695,9.7695,9.7695,9.7695,9.7695,9.7695,9.7695,9.7695,9.7695,9.7695,9.7695,9.7695,9.7695,9.7695,9.7695,9.7695,9.7695,9.7695,9.7695,9.7695,9.7695,9.7695,9.7695,9.7695,9.7695,9.7695,9.7695,9.7695,9.7695,9.7695,9.8437,9.9297,10.0195,10.1094,10.1914,10.2812,10.289,10.289,10.289,10.289,10.289,10.289,10.289,10.289,10.289,10.289,10.289,10.289,10.289,10.289,0.0,0.0,8.2285,8.0638,0.0,0.0,0.0,0.0,0.0,0.0,0.0,0.0,0.0,0.0,0.0,0.0,0.0,0.0,0.0,0.0,0.0,0.0,0.0,0.0,0.0,0.0,0.0,0.0,0.0,0.0,0.0,9.1484,9.3398,9.5156,9.6328,9.6914,9.6914,9.7422,9.7695,9.7695,9.7695,9.7695,9.7695,9.7695,9.7695,9.7695,9.7695,9.7695,9.7695,9.7695,9.7695,9.7695,9.7695,9.7695,9.7695,9.7695,9.7695,9.7695,9.7695,9.7695,9.7695,9.7695,9.7695,9.7695,9.7695,9.7695,9.7695,9.7695,9.7695,9.7695,9.7695,9.7695,9.7695,9.7695,9.7695,9.7695,9.7695,9.7695,9.7695,9.7695,9.7695,9.7695,9.7695,9.7695,9.7695,9.7695,9.7695,9.7695,9.7695,9.7695,9.7695,9.7695,9.8476,9.9336,10.0195,10.1601,10.2617,10.289,10.289,10.289,10.289,10.289,10.289,10.289,10.289,10.289,10.289,10.289,10.289,10.289,10.289,10.289,8.6517,8.6632,0.0,8.4901,8.3247,0.0,7.9383,0.0,0.0,0.0,0.0,0.0,0.0,0.0,0.0,0.0,0.0,0.0,0.0,0.0,0.0,0.0,0.0,0.0,0.0,0.0,0.0,0.0,0.0,0.0,0.0,0.0,9.2773,9.5117,9.6328,9.6797,9.6484,9.7304,9.7695,9.7695,9.7695,9.7695,9.7695,9.7695,9.7695,9.7695,9.7695,9.7695,9.7695,9.7695,9.7695,9.7695,9.7695,9.7695,9.7695,9.7695,9.7695,9.7695,9.7695,9.7695,9.7695,9.7695,9.7695,9.7695,9.7695,9.7695,9.7695,9.7695,9.7695,9.7695,9.7695,9.7695,9.7695,9.7695,9.7695,9.7695,9.7695,9.7695,9.7695,9.7695,9.7695,9.7695,9.7695,9.7695,9.7695,9.7695,9.7695,9.7695,9.7695,9.7695,9.7695,9.7695,9.875,9.9922,10.1094,10.2304,10.289,10.289,10.289,10.289,10.289,10.289,10.2812,10.2383,10.2695,10.2695,10.2383,10.2695,10.289,10.289,10.289,10.289]},{"header":{"parameterUnit":"m.s-1","parameterCategory":1,"la1":30.6,"la2":29.2853,"lo1":-89.7004,"lo2":-87.6739,"dx":0.0162,"dy":0.0183,"nx":112,"ny":82,"refTime":"2022-11-13T06:00:00:Z","depth":0,"parameterNumber":3,"parameterNumberName":"V-component_of_WINDS"},"data":[0.0,0.0,0.0,0.0,0.0,0.0,0.0,0.0,0.0,0.0,0.0,0.0,0.0,0.0,0.0,0.0,0.0,0.0,0.0,0.0,0.0,0.0,0.0,0.0,0.0,0.0,0.0,0.0,0.0,0.0,0.0,0.0,0.0,0.0,0.0,0.0,0.0,0.0,0.0,0.0,0.0,0.0,0.0,0.0,0.0,0.0,0.0,0.0,0.0,0.0,0.0,0.0,0.0,0.0,0.0,0.0,0.0,0.0,0.0,0.0,0.0,0.0,0.0,0.0,0.0,0.0,0.0,0.0,0.0,0.0,0.0,0.0,0.0,0.0,0.0,0.0,0.0,0.0,0.0,0.0,0.0,0.0,0.0,0.0,0.0,0.0,0.0,0.0,0.0,0.0,0.0,-1.1491,-1.1735,-1.1864,-1.1864,-1.1735,-1.128,-1.0405,0.0,0.0,0.0,0.0,0.0,0.0,0.0,0.0,0.0,0.0,0.0,0.0,0.0,0.0,0.0,0.0,0.0,0.0,0.0,0.0,0.0,0.0,0.0,0.0,0.0,0.0,0.0,0.0,0.0,0.0,0.0,0.0,0.0,0.0,0.0,0.0,0.0,0.0,0.0,0.0,0.0,0.0,0.0,0.0,0.0,0.0,0.0,0.0,0.0,0.0,0.0,0.0,0.0,0.0,0.0,0.0,0.0,0.0,0.0,0.0,0.0,0.0,0.0,0.0,0.0,0.0,0.0,0.0,0.0,0.0,0.0,0.0,0.0,0.0,0.0,0.0,0.0,0.0,0.0,0.0,0.0,0.0,0.0,0.0,0.0,0.0,0.0,0.0,0.0,0.0,0.0,0.0,0.0,0.0,0.0,0.0,0.0,0.0,0.0,0.0,0.0,0.0,0.0,0.0,-1.126,-1.2067,-1.2074,-1.2026,-1.2026,-1.1884,-1.147,-1.0704,0.0,0.0,0.0,0.0,0.0,0.0,0.0,0.0,0.0,0.0,0.0,0.0,0.0,0.0,0.0,0.0,0.0,0.0,0.0,0.0,0.0,0.0,0.0,0.0,0.0,0.0,0.0,0.0,0.0,0.0,0.0,0.0,0.0,0.0,0.0,0.0,0.0,0.0,0.0,0.0,0.0,0.0,0.0,0.0,0.0,0.0,0.0,0.0,0.0,0.0,0.0,0.0,0.0,0.0,0.0,0.0,0.0,0.0,0.0,0.0,0.0,0.0,0.0,0.0,0.0,0.0,0.0,0.0,0.0,0.0,0.0,0.0,0.0,0.0,0.0,0.0,0.0,0.0,0.0,0.0,0.0,0.0,0.0,0.0,0.0,0.0,0.0,0.0,0.0,0.0,0.0,0.0,0.0,0.0,0.0,0.0,0.0,0.0,0.0,0.0,0.0,0.0,0.0,-1.124,-1.1681,-1.2332,-1.2196,-1.206,-1.206,-1.1918,-1.1511,-1.0765,-1.0595,0.0,0.0,0.0,0.0,0.0,0.0,0.0,0.0,0.0,0.0,0.0,0.0,0.0,0.0,0.0,0.0,0.0,0.0,0.0,0.0,0.0,0.0,0.0,0.0,0.0,0.0,0.0,0.0,0.0,0.0,0.0,0.0,0.0,0.0,0.0,0.0,0.0,0.0,0.0,0.0,0.0,0.0,0.0,0.0,0.0,0.0,0.0,0.0,0.0,0.0,0.0,0.0,0.0,0.0,0.0,0.0,0.0,0.0,0.0,0.0,0.0,0.0,0.0,0.0,0.0,0.0,0.0,0.0,0.0,0.0,0.0,0.0,0.0,0.0,0.0,0.0,0.0,0.0,0.0,0.0,0.0,0.0,0.0,0.0,0.0,0.0,0.0,0.0,0.0,0.0,0.0,0.0,0.0,0.0,0.0,0.0,0.0,0.0,0.0,0.0,0.0,0.0,-1.1742,-1.2108,-1.242,-1.2216,-1.2047,-1.2013,-1.187,-1.1491,-1.0819,-1.0738,0.0,0.0,0.0,0.0,0.0,0.0,0.0,0.0,0.0,0.0,0.0,0.0,0.0,0.0,0.0,0.0,0.0,0.0,0.0,0.0,0.0,0.0,0.0,0.0,0.0,0.0,0.0,0.0,0.0,0.0,0.0,0.0,0.0,0.0,0.0,0.0,0.0,0.0,0.0,0.0,0.0,0.0,0.0,0.0,0.0,0.0,0.0,0.0,0.0,0.0,0.0,0.0,0.0,0.0,0.0,0.0,0.0,0.0,0.0,0.0,0.0,0.0,0.0,0.0,0.0,0.0,0.0,0.0,0.0,0.0,0.0,0.0,0.0,0.0,0.0,0.0,0.0,0.0,0.0,0.0,0.0,0.0,0.0,0.0,0.0,0.0,0.0,0.0,0.0,0.0,0.0,0.0,0.0,0.0,0.0,0.0,0.0,0.0,0.0,0.0,0.0,0.0,-1.2013,-1.242,-1.2318,-1.2155,-1.2006,-1.1857,-1.1714,-1.1436,-1.0962,-1.0799,0.0,0.0,0.0,0.0,0.0,0.0,0.0,0.0,0.0,0.0,0.0,0.0,0.0,0.0,0.0,0.0,0.0,0.0,0.0,0.0,0.0,0.0,0.0,0.0,0.0,0.0,0.0,0.0,0.0,0.0,0.0,0.0,0.0,0.0,0.0,0.0,0.0,0.0,0.0,0.0,0.0,0.0,0.0,0.0,0.0,0.0,0.0,0.0,0.0,0.0,0.0,0.0,0.0,0.0,0.0,0.0,0.0,0.0,0.0,0.0,0.0,0.0,0.0,0.0,0.0,0.0,0.0,0.0,0.0,0.0,0.0,0.0,0.0,0.0,0.0,0.0,0.0,0.0,0.0,0.0,0.0,0.0,0.0,0.0,0.0,0.0,0.0,0.0,0.0,0.0,0.0,0.0,0.0,0.0,0.0,0.0,0.0,0.0,0.0,0.0,0.0,0.0,-1.1857,-1.2169,0.0,-1.2121,-1.1932,-1.1972,-1.1925,-1.1626,-1.0989,0.0,0.0,0.0,0.0,0.0,0.0,0.0,0.0,0.0,0.0,0.0,0.0,0.0,0.0,0.0,0.0,0.0,0.0,0.0,0.0,0.0,0.0,0.0,0.0,0.0,0.0,0.0,0.0,0.0,0.0,0.0,0.0,0.0,0.0,0.0,0.0,0.0,0.0,0.0,0.0,0.0,0.0,0.0,0.0,0.0,0.0,0.0,0.0,0.0,0.0,0.0,0.0,0.0,0.0,0.0,0.0,0.0,0.0,0.0,0.0,0.0,0.0,0.0,0.0,0.0,0.0,0.0,0.0,0.0,0.0,0.0,0.0,0.0,0.0,0.0,0.0,0.0,0.0,0.0,0.0,0.0,0.0,0.0,0.0,0.0,0.0,0.0,0.0,0.0,0.0,0.0,0.0,0.0,0.0,0.0,0.0,0.0,0.0,0.0,0.0,0.0,0.0,-1.1504,-1.1837,-1.2128,0.0,-1.2128,-1.1979,-1.1986,-1.1986,-1.1708,-1.1056,0.0,0.0,0.0,0.0,0.0,0.0,0.0,0.0,0.0,0.0,0.0,0.0,0.0,0.0,0.0,0.0,0.0,0.0,0.0,0.0,0.0,0.0,0.0,0.0,0.0,0.0,0.0,0.0,0.0,0.0,0.0,0.0,0.0,0.0,0.0,0.0,0.0,0.0,0.0,0.0,0.0,0.0,0.0,0.0,0.0,0.0,0.0,0.0,0.0,0.0,0.0,0.0,0.0,0.0,0.0,0.0,0.0,0.0,0.0,0.0,0.0,0.0,0.0,0.0,0.0,0.0,0.0,0.0,0.0,0.0,0.0,0.0,0.0,0.0,0.0,0.0,0.0,0.0,0.0,0.0,0.0,0.0,0.0,0.0,0.0,0.0,0.0,0.0,0.0,0.0,0.0,0.0,0.0,0.0,0.0,0.0,0.0,0.0,0.0,0.0,0.0,0.0,-1.1389,-1.204,-1.2386,-1.2094,-1.2196,-1.2162,-1.1864,-1.1837,-1.1647,0.0,0.0,0.0,0.0,0.0,0.0,0.0,0.0,0.0,0.0,0.0,0.0,0.0,0.0,0.0,0.0,0.0,0.0,0.0,0.0,0.0,0.0,0.0,0.0,0.0,0.0,0.0,0.0,0.0,0.0,0.0,0.0,0.0,0.0,0.0,0.0,0.0,0.0,0.0,0.0,0.0,0.0,0.0,0.0,0.0,0.0,0.0,0.0,0.0,0.0,0.0,0.0,0.0,0.0,0.0,0.0,0.0,0.0,0.0,0.0,0.0,0.0,0.0,0.0,0.0,0.0,0.0,0.0,0.0,0.0,0.0,0.0,0.0,0.0,0.0,0.0,0.0,0.0,0.0,0.0,0.0,0.0,0.0,0.0,0.0,0.0,0.0,0.0,0.0,0.0,0.0,0.0,0.0,0.0,0.0,0.0,0.0,0.0,0.0,0.0,0.0,0.0,0.0,-1.1402,-1.1952,-1.2318,-1.223,-1.2169,-1.2135,-1.2155,-1.2155,-1.1918,-1.1362,0.0,0.0,0.0,0.0,0.0,0.0,0.0,0.0,0.0,0.0,0.0,0.0,0.0,0.0,0.0,0.0,0.0,0.0,0.0,0.0,0.0,0.0,0.0,0.0,0.0,0.0,0.0,0.0,0.0,0.0,0.0,0.0,0.0,0.0,0.0,0.0,0.0,0.0,0.0,0.0,0.0,0.0,0.0,0.0,0.0,0.0,0.0,0.0,0.0,0.0,0.0,0.0,0.0,0.0,0.0,0.0,0.0,0.0,0.0,0.0,0.0,0.0,0.0,0.0,0.0,0.0,0.0,0.0,0.0,0.0,0.0,0.0,0.0,0.0,0.0,0.0,0.0,0.0,0.0,0.0,0.0,0.0,0.0,0.0,0.0,0.0,0.0,0.0,0.0,0.0,0.0,0.0,0.0,0.0,0.0,0.0,0.0,0.0,0.0,0.0,0.0,0.0,-1.1402,-1.1918,-1.2291,-1.2291,-1.2257,-1.225,-1.2284,-1.2338,-1.2142,-1.1599,0.0,0.0,0.0,0.0,0.0,0.0,0.0,0.0,0.0,0.0,0.0,0.0,0.0,0.0,0.0,0.0,0.0,0.0,0.0,0.0,0.0,0.0,0.0,0.0,0.0,0.0,0.0,0.0,0.0,0.0,0.0,0.0,0.0,0.0,0.0,0.0,0.0,0.0,0.0,0.0,0.0,0.0,0.0,0.0,0.0,0.0,0.0,0.0,0.0,0.0,0.0,0.0,0.0,0.0,0.0,0.0,0.0,0.0,0.0,0.0,0.0,0.0,0.0,0.0,0.0,0.0,0.0,0.0,0.0,0.0,0.0,0.0,0.0,0.0,0.0,0.0,0.0,0.0,0.0,0.0,0.0,0.0,0.0,0.0,0.0,0.0,0.0,0.0,0.0,0.0,0.0,0.0,0.0,0.0,0.0,0.0,0.0,0.0,0.0,0.0,0.0,0.0,-1.1396,-1.1932,-1.2311,-1.2311,-1.244,-1.2474,-1.2338,-1.2447,-1.2338,-1.1904,0.0,0.0,0.0,0.0,0.0,0.0,0.0,0.0,0.0,0.0,0.0,0.0,0.0,0.0,0.0,0.0,0.0,0.0,0.0,0.0,0.0,0.0,0.0,0.0,0.0,0.0,0.0,0.0,0.0,0.0,0.0,0.0,0.0,0.0,0.0,0.0,0.0,0.0,0.0,0.0,0.0,0.0,0.0,0.0,0.0,0.0,0.0,0.0,0.0,0.0,0.0,0.0,0.0,0.0,0.0,0.0,0.0,0.0,0.0,0.0,-1.0331,0.0,0.0,0.0,0.0,0.0,0.0,0.0,0.0,0.0,0.0,0.0,0.0,0.0,0.0,0.0,0.0,0.0,0.0,0.0,0.0,0.0,0.0,0.0,0.0,0.0,0.0,0.0,0.0,0.0,0.0,0.0,0.0,0.0,0.0,0.0,0.0,0.0,0.0,0.0,0.0,0.0,-1.1409,-1.2013,-1.2454,-1.2454,-1.2589,-1.2671,-1.2637,-1.2664,-1.2542,-1.221,-1.2054,0.0,0.0,0.0,0.0,0.0,0.0,0.0,0.0,0.0,0.0,0.0,0.0,0.0,0.0,0.0,0.0,0.0,0.0,0.0,0.0,0.0,0.0,0.0,0.0,0.0,0.0,0.0,0.0,0.0,0.0,0.0,0.0,0.0,0.0,0.0,0.0,0.0,0.0,0.0,0.0,0.0,0.0,0.0,0.0,0.0,0.0,0.0,0.0,0.0,0.0,0.0,0.0,0.0,0.0,0.0,0.0,0.0,0.0,0.0,0.0,-1.0446,0.0,0.0,0.0,0.0,0.0,0.0,0.0,0.0,0.0,0.0,0.0,0.0,0.0,0.0,0.0,0.0,0.0,0.0,0.0,0.0,0.0,0.0,0.0,0.0,0.0,0.0,0.0,0.0,0.0,0.0,0.0,0.0,0.0,0.0,0.0,0.0,0.0,0.0,0.0,0.0,-1.1694,-1.2176,-1.2528,-1.2603,-1.2745,-1.284,-1.284,-1.284,-1.2773,-1.2623,-1.24,0.0,0.0,0.0,0.0,0.0,0.0,0.0,0.0,0.0,0.0,0.0,0.0,0.0,0.0,0.0,0.0,0.0,0.0,0.0,0.0,0.0,0.0,0.0,0.0,0.0,0.0,0.0,0.0,0.0,0.0,0.0,0.0,0.0,0.0,0.0,0.0,0.0,0.0,0.0,0.0,0.0,0.0,0.0,0.0,0.0,0.0,0.0,0.0,0.0,0.0,0.0,0.0,0.0,-1.1063,-1.1009,-1.0914,-1.0914,-1.0928,-1.0962,-1.1036,-1.1233,-1.1457,0.0,0.0,0.0,0.0,0.0,0.0,0.0,0.0,0.0,0.0,0.0,0.0,0.0,0.0,0.0,0.0,0.0,0.0,0.0,0.0,0.0,0.0,0.0,0.0,0.0,-1.2006,-1.1965,0.0,0.0,0.0,0.0,0.0,0.0,0.0,0.0,0.0,0.0,0.0,0.0,-1.2054,-1.2359,-1.261,-1.2786,-1.2922,-1.2996,-1.2996,-1.2996,-1.2996,-1.2996,-1.2739,-1.2542,0.0,0.0,0.0,0.0,0.0,0.0,0.0,0.0,0.0,0.0,0.0,0.0,0.0,0.0,0.0,0.0,0.0,0.0,0.0,0.0,0.0,0.0,0.0,0.0,0.0,0.0,0.0,0.0,0.0,0.0,0.0,0.0,-1.0168,-0.9666,0.0,0.0,0.0,0.0,0.0,0.0,0.0,0.0,0.0,0.0,0.0,0.0,0.0,-1.0766,-1.0705,-1.0973,-1.1392,-1.1973,-1.1681,-1.1435,-1.1536,-1.1536,-1.1755,-1.2017,-1.1633,0.0,-1.1036,-1.1063,0.0,0.0,0.0,0.0,0.0,0.0,0.0,0.0,0.0,0.0,0.0,0.0,0.0,0.0,0.0,0.0,0.0,0.0,0.0,0.0,0.0,0.0,-1.2332,-1.225,-1.2244,-1.2237,0.0,-1.1728,-1.1348,-1.1307,-1.1192,0.0,0.0,0.0,0.0,0.0,0.0,0.0,-1.2237,-1.2515,-1.2807,-1.3085,-1.3132,-1.3146,-1.3146,-1.3146,-1.3146,-1.3146,-1.299,-1.2949,-1.3051,-1.2562,0.0,0.0,0.0,0.0,0.0,0.0,0.0,0.0,0.0,0.0,0.0,0.0,0.0,0.0,0.0,0.0,0.0,0.0,0.0,0.0,0.0,0.0,0.0,0.0,0.0,0.0,0.0,0.0,0.0,-0.9723,-1.0605,-1.0397,-1.0587,-1.0601,0.0,0.0,0.0,0.0,0.0,0.0,0.0,0.0,0.0,-1.0443,-1.0717,-1.0935,-1.1239,-1.1389,-1.1606,-1.2039,-1.1887,-1.1728,-1.1563,-1.1714,-1.1748,-1.1809,-1.1687,-1.1525,-1.1341,-1.1307,-1.1307,-1.1301,0.0,0.0,0.0,0.0,-1.1151,-1.1246,-1.1375,-1.1619,0.0,0.0,0.0,0.0,0.0,0.0,0.0,0.0,0.0,0.0,0.0,0.0,0.0,-1.2494,-1.2474,-1.2386,-1.2311,-1.2081,-1.187,0.0,-1.1714,-1.164,-1.1552,0.0,0.0,0.0,0.0,-1.2305,-1.2623,-1.2847,-1.303,-1.3159,-1.3329,-1.3431,-1.3431,-1.3431,-1.3464,-1.3546,-1.3417,-1.3322,-1.3302,-1.3051,-1.2684,0.0,0.0,0.0,0.0,0.0,0.0,0.0,0.0,0.0,0.0,0.0,0.0,0.0,0.0,0.0,0.0,0.0,0.0,0.0,0.0,0.0,0.0,0.0,0.0,0.0,0.0,0.0,0.0,-0.9758,-1.0566,-1.087,-1.1155,-1.1068,0.0,0.0,0.0,0.0,0.0,0.0,-1.027,-1.0732,-1.1016,-1.1274,-1.1168,-1.1186,-1.1623,-1.1623,-1.1775,-1.1935,-1.1935,-1.1887,-1.164,-1.164,-1.166,-1.1556,-1.1569,-1.1596,-1.1616,-1.1545,-1.1525,-1.1613,-1.1457,-1.1396,-1.1396,-1.1436,-1.1518,-1.1633,-1.1755,-1.1938,-1.2128,-1.2162,0.0,-1.2216,-1.2142,0.0,0.0,0.0,0.0,-1.1911,-1.221,-1.2264,-1.2298,-1.2556,-1.2528,-1.2427,-1.2359,-1.2345,-1.2298,0.0,-1.2088,-1.204,-1.1959,0.0,0.0,0.0,0.0,-1.2596,-1.2969,-1.3139,-1.3247,-1.3288,-1.3526,-1.3682,-1.3682,-1.3722,-1.377,-1.3838,-1.3777,-1.3675,-1.3519,-1.3444,-1.3139,-1.2583,0.0,0.0,0.0,0.0,0.0,0.0,0.0,0.0,0.0,0.0,0.0,0.0,0.0,0.0,0.0,0.0,0.0,0.0,0.0,0.0,0.0,0.0,0.0,0.0,0.0,0.0,0.0,0.0,0.0,-1.1476,-1.1077,0.0,0.0,0.0,0.0,-1.138,-1.1519,-1.1524,-1.1551,-1.1566,-1.1578,-1.1592,-1.188,-1.1894,-1.1633,-1.1626,-1.164,-1.166,-1.166,-1.1674,-1.1556,-1.1556,-1.163,-1.1616,-1.1616,-1.1541,-1.1639,-1.1623,-1.1647,-1.1633,-1.1605,-1.1537,-1.1557,-1.1558,-1.1613,-1.1681,-1.2108,-1.2422,-1.2457,-1.244,-1.2576,-1.2644,-1.2366,-1.2366,0.0,0.0,-1.2244,-1.2433,-1.2318,-1.2494,-1.263,-1.2372,-1.2305,-1.2338,-1.2461,-1.2488,-1.2447,0.0,-1.2162,-1.2108,-1.2244,0.0,-1.2467,-1.2494,-1.2745,-1.2983,-1.3139,-1.3295,-1.3444,-1.3593,-1.3743,-1.3831,-1.3831,-1.3966,-1.3987,-1.3851,-1.3973,-1.398,-1.3824,-1.3553,-1.3383,-1.3349,-1.2644,0.0,0.0,0.0,0.0,0.0,0.0,0.0,0.0,0.0,0.0,0.0,0.0,0.0,0.0,0.0,0.0,0.0,0.0,0.0,0.0,0.0,0.0,0.0,0.0,0.0,0.0,0.0,0.0,-1.1404,-1.1131,0.0,-1.0975,-1.0893,-1.12,-1.1568,-1.1614,-1.1636,-1.1598,-1.1653,-1.1572,-1.164,-1.1694,-1.1708,-1.1529,-1.1623,-1.153,-1.1537,-0.6515,-0.4154,-0.4159,-0.4159,-0.4171,-0.4489,-0.9489,-0.8755,-0.4374,-0.6884,-0.9398,-1.1636,-1.1557,-1.1583,-1.1669,-1.1573,-1.1795,-1.1914,-1.2165,-1.2258,-1.244,-1.2423,-1.2668,-1.2695,-1.2752,-1.2759,-1.2773,-1.2671,-1.2718,-1.2786,-1.2732,-1.28,-1.2854,-1.2745,-1.2725,-1.2732,-1.2786,-1.28,-1.2779,-1.2732,-1.2678,-1.2684,-1.2834,-1.2827,-1.2861,-1.3051,-1.3173,-1.3302,-1.3444,-1.3593,-1.3702,-1.3756,-1.3899,-1.3987,-1.3987,-1.4129,-1.4231,-1.4272,-1.4326,-1.4245,-1.4,-1.398,-1.3797,-1.341,-1.3139,-1.2739,0.0,0.0,0.0,0.0,0.0,0.0,0.0,0.0,0.0,0.0,0.0,0.0,0.0,0.0,0.0,0.0,0.0,0.0,0.0,0.0,0.0,0.0,0.0,0.0,0.0,0.0,-1.0826,-1.1718,-1.1328,-1.1133,-1.1551,-1.1657,-1.1608,-1.1608,-1.1653,-1.1619,-1.1633,-1.1633,-1.1647,-1.1674,-0.905,-0.7747,-0.7615,-0.7712,-0.7612,-0.7621,-0.2401,0.0,0.0,0.0,0.0,-0.0303,-0.548,-0.4733,-0.0153,-0.2753,-0.7041,-1.196,-1.1828,-1.1835,-1.1914,-1.1907,-1.1993,-1.23,-1.2501,-1.2601,-1.2661,-1.2602,-1.2822,-1.2876,-1.3091,-1.3146,-1.32,-1.3247,-1.3261,-1.3234,-1.3132,-1.3112,-1.3085,-1.2983,-1.2963,-1.2976,-1.3024,-1.303,-1.3064,-1.3166,-1.3064,-1.299,-1.3085,-1.3064,-1.3098,-1.3295,-1.337,-1.3437,-1.3539,-1.3722,-1.3838,-1.3838,-1.4027,-1.417,-1.4217,-1.4272,-1.438,-1.4577,-1.4536,-1.4421,-1.4231,-1.417,-1.3933,-1.3485,-1.3227,-1.2881,-1.2433,0.0,0.0,0.0,0.0,0.0,0.0,0.0,0.0,0.0,0.0,0.0,0.0,0.0,0.0,0.0,0.0,0.0,0.0,0.0,0.0,0.0,0.0,0.0,-1.0022,-1.0836,-1.1783,-1.2489,-1.2008,-1.1569,-1.1571,-1.1531,-1.1619,-1.1619,-1.1619,-1.1633,-1.166,-1.1365,-1.1234,-1.1273,-0.3969,0.0,0.0,0.0,0.0,0.0,0.0,0.0,0.0,0.0,0.0,0.0,0.0,0.0,0.0,0.0,-0.4863,-1.2141,-1.2422,-1.2442,-1.2435,-1.2557,-1.2498,-1.2678,-1.3141,-1.3186,-1.299,-1.299,-1.3078,-1.305,-1.337,-1.3519,-1.3668,-1.3804,-1.3838,-1.377,-1.3485,-1.3403,-1.3329,-1.3044,-1.2976,-1.3017,-1.3159,-1.3186,-1.3275,-1.3573,-1.3281,-1.299,-1.299,-1.3105,-1.3193,-1.3193,-1.3322,0.0,-1.3424,-1.3675,-1.3851,-1.3844,-1.4129,-1.4367,-1.4496,-1.4394,-1.4448,-1.4726,-1.4611,-1.4523,-1.4509,-1.4102,-1.3804,-1.3654,-1.2915,-1.2603,-1.2745,0.0,0.0,0.0,0.0,0.0,0.0,0.0,0.0,0.0,0.0,0.0,0.0,0.0,0.0,0.0,0.0,0.0,0.0,0.0,0.0,0.0,0.0,-1.1525,-1.1206,-1.1705,-1.2316,-1.2532,-1.1907,-1.161,-1.1572,-1.1592,-1.1626,-1.1647,-1.1647,-1.1563,-1.155,-0.618,-0.3248,-0.3136,-0.1049,0.0,0.0,0.0,0.0,0.0,0.0,0.0,0.0,0.0,0.0,0.0,0.0,0.0,0.0,0.0,-0.1284,-0.4006,-1.018,-1.2433,-1.244,-1.2522,-1.2779,-1.3112,-1.3356,-1.3383,-1.3257,-1.3257,-1.3277,-1.3316,-1.3356,-1.3579,-1.3968,-1.4009,-1.377,-1.3668,-1.3587,-1.3485,-1.3376,-1.3302,-1.3281,-1.3322,-1.3471,-1.3505,-1.3559,-1.3743,-1.3682,-1.36,-1.36,-1.3634,-1.3654,-1.3654,-1.379,0.0,-1.3885,-1.4055,-1.4129,-1.4021,-1.4373,-1.455,-1.4373,-1.4719,-1.493,-1.4909,-1.4964,-1.4855,-1.4523,-1.4604,-1.4489,-1.4122,-1.3593,-1.3234,0.0,0.0,0.0,0.0,0.0,0.0,0.0,0.0,0.0,0.0,0.0,0.0,0.0,0.0,0.0,0.0,0.0,0.0,0.0,0.0,0.0,0.0,-1.1502,-1.2018,-1.1914,-1.224,-1.2436,-1.222,-1.187,-1.163,-1.1647,-1.1633,-1.1674,-1.1616,-0.8639,-0.6771,-0.6723,-0.2386,0.0,0.0,0.0,0.0,0.0,0.0,0.0,0.0,0.0,0.0,0.0,0.0,0.0,0.0,0.0,0.0,0.0,0.0,-0.2272,0.0,0.0,0.0,0.0,0.0,-1.3119,-1.341,-1.3645,-1.3823,-1.3838,-1.3838,-1.3838,-1.3851,-1.374,-1.3939,-1.4132,-1.4194,-1.3973,-1.3899,-1.3831,-1.3797,-1.3743,-1.3614,-1.3634,-1.3688,-1.3715,-1.3715,-1.3763,-1.3905,-1.3939,0.0,-1.4021,-1.3926,-1.3824,-1.3763,-1.3878,-1.3973,-1.3973,-1.4163,-1.4292,-1.4258,-1.4604,-1.4814,-1.4767,-1.497,0.0,0.0,0.0,-1.4916,-1.4529,-1.4624,0.0,0.0,0.0,0.0,0.0,0.0,0.0,0.0,-1.2338,-1.2081,0.0,0.0,0.0,0.0,0.0,0.0,0.0,0.0,0.0,0.0,0.0,0.0,0.0,0.0,0.0,0.0,-1.2503,-1.2466,-1.2436,-1.2484,-1.2223,-1.1599,-1.161,-1.1623,-1.1543,-1.0794,-1.0268,-1.0281,-0.3853,0.0,0.0,0.0,0.0,0.0,0.0,0.0,0.0,0.0,0.0,0.0,0.0,0.0,0.0,0.0,0.0,0.0,0.0,0.0,-0.0,-0.1145,-0.6227,-1.3356,-1.2883,-1.2668,-1.2695,-1.3152,-1.3473,-1.3471,-1.4147,0.0,0.0,-1.4249,-1.4249,-1.4277,-1.4235,-1.4277,-1.4311,-1.4278,-1.4312,-1.4278,-1.4177,-1.4224,-1.4238,-1.3973,-1.3994,-1.4041,-1.3919,-1.3878,-1.3912,-1.4068,-1.4095,-1.4143,-1.4299,-1.4082,-1.3858,-1.3743,-1.3838,-1.3919,-1.3939,-1.4183,-1.4394,-1.4502,0.0,0.0,-1.5343,-1.5181,-1.5235,-1.5615,-1.5235,-1.4882,-1.4624,-1.4441,-1.4231,-1.3973,-1.3695,-1.3682,-1.3939,-1.3661,-1.3654,-1.3865,-1.2773,-1.2406,0.0,0.0,0.0,0.0,0.0,0.0,0.0,0.0,0.0,0.0,0.0,0.0,0.0,0.0,0.0,-1.228,-1.2543,-1.2546,-1.2454,-1.2553,-1.2237,-1.1606,-1.1544,-1.1583,-1.153,-0.589,-0.222,-0.2253,-0.0902,0.0,0.0,0.0,0.0,0.0,0.0,0.0,0.0,0.0,0.0,0.0,0.0,0.0,0.0,0.0,0.0,0.0,0.0,0.0,-0.0502,-0.778,-1.1804,-1.3396,-1.3207,-1.3219,-1.3322,-1.3302,-1.3358,-1.3429,-1.4112,-1.4263,-1.4217,-1.4217,-1.4217,-1.4217,-1.4251,-1.4258,0.0,-1.4249,-1.4387,-1.4531,-1.4557,-1.4455,-1.4312,-1.4367,-1.4224,-1.4095,-1.419,-1.4116,-1.4075,-1.4224,-1.4258,-1.4299,-1.4448,-1.4326,-1.4238,-1.4326,-1.4367,-1.4428,-1.455,-1.4618,-1.4618,-1.4523,-1.4997,-1.5255,-1.5072,-1.5438,-1.5669,-1.5642,-1.5323,-1.5167,-1.5235,-1.4862,-1.4685,-1.4753,-1.457,-1.4509,-1.4563,-1.4387,-1.4265,-1.4197,-1.3722,-1.3526,0.0,0.0,0.0,0.0,0.0,0.0,0.0,0.0,0.0,0.0,0.0,-1.1131,0.0,0.0,-1.1857,-1.2388,-1.2567,-1.2508,-1.2528,-1.2505,-1.2333,-1.1626,-1.161,-1.0029,-0.6212,-0.223,0.0,0.0,0.0,0.0,0.0,0.0,0.0,0.0,0.0,0.0,0.0,0.0,0.0,0.0,0.0,0.0,0.0,0.0,0.0,0.0,0.0,0.0,-0.0343,-0.4872,-0.9329,-1.3455,-1.3482,-1.3459,-1.3372,-1.3425,-1.3633,-1.3901,-1.4163,-1.4333,-1.4336,-1.4336,-1.4336,-1.4336,-1.4336,-1.4336,-1.435,-1.4236,-1.4577,-1.4924,-1.4706,-1.4685,-1.4631,-1.4624,-1.457,-1.4523,-1.4523,-1.4401,-1.4312,-1.4394,-1.4407,-1.4428,-1.4502,-1.4516,-1.4543,-1.4618,-1.4624,-1.4652,-1.4726,-1.4808,-1.4855,-1.4848,-1.5255,-1.5493,-1.5418,-1.5757,-1.5906,-1.5757,-1.5601,-1.552,-1.5527,-1.5309,-1.5187,-1.5194,-1.5038,-1.4923,-1.4855,-1.4699,-1.459,-1.4516,-1.436,-1.4129,0.0,0.0,0.0,0.0,0.0,0.0,0.0,0.0,-1.1825,-1.1748,-1.2107,-1.2455,-1.2466,-1.2554,-1.2466,-1.2449,-1.2512,-1.2535,-1.244,-1.2461,-1.1682,-0.958,-0.9324,-0.6857,-0.0597,0.0,0.0,0.0,0.0,0.0,0.0,0.0,0.0,0.0,0.0,0.0,0.0,0.0,0.0,0.0,0.0,0.0,0.0,0.0,0.0,0.0,0.0,0.0,0.0,0.0,-0.4312,-1.0865,-1.0814,-1.1948,-1.3546,-1.3654,-1.3954,-1.4346,-1.438,-1.4536,-1.4551,-1.4551,-1.4551,-1.4551,-1.4551,-1.4557,-1.4381,-1.4415,-1.4801,-1.5188,-1.5032,-1.4943,-1.5004,-1.4882,-1.4923,-1.4964,-1.4862,-1.4719,-1.4618,-1.4638,-1.4645,-1.4652,-1.4679,-1.476,-1.4814,-1.4787,-1.4787,-1.4794,-1.4821,-1.4936,-1.5059,-1.5167,-1.5459,-1.571,-1.5886,-1.6008,-1.6029,-1.5906,-1.5866,-1.5805,-1.5683,-1.5655,-1.5581,-1.5459,-1.5303,-1.5167,-1.5059,-1.4903,-1.4814,-1.4787,-1.4787,-1.4509,-0.9747,-1.06,-1.1092,-1.0058,-1.0605,-1.1386,0.0,0.0,-1.2388,-1.2387,-1.247,-1.2519,-1.2512,-1.256,-1.2447,-1.2494,-1.2528,-1.2447,-1.2456,-1.2427,-0.9773,-0.2178,-0.1374,-0.0908,-0.0153,0.0,0.0,0.0,0.0,0.0,0.0,0.0,0.0,0.0,0.0,0.0,0.0,0.0,0.0,0.0,0.0,0.0,0.0,0.0,0.0,0.0,0.0,0.0,0.0,0.0,-0.0544,-0.1475,-0.1458,-0.675,-1.4212,-1.4203,-1.4309,-1.4323,-1.4833,-1.509,-1.5118,-1.5118,-1.5118,-1.5118,-1.5118,-1.5139,-1.5011,-1.5142,-1.5204,-1.5259,-1.5208,-1.5248,-1.5262,-1.5242,-1.5153,-1.5279,-1.5368,-1.5265,-1.5183,-1.5092,-1.5106,-1.5153,-1.5289,-1.5215,-1.5092,-1.4964,-1.4943,-1.4991,-1.512,-1.5147,-1.5167,-1.5181,-1.5459,-1.575,-1.6035,-1.6069,-1.6076,-1.6056,-1.5927,-1.5845,-1.5832,-1.571,-1.5628,-1.5615,-1.5466,-1.5377,-1.5364,-1.5208,-1.5065,-1.4943,-1.4943,-1.4835,-0.9786,-1.0149,-1.0618,-1.1274,-1.1712,-1.2116,-1.2072,-1.2317,-1.255,-1.2512,-1.2567,-1.2433,-1.2494,-1.2522,-1.2535,0.0,-0.8333,-0.5215,-0.5252,-0.5218,-0.3937,-0.0475,0.0,0.0,0.0,0.0,0.0,0.0,0.0,0.0,0.0,0.0,0.0,0.0,0.0,0.0,0.0,0.0,0.0,0.0,0.0,0.0,0.0,0.0,0.0,0.0,0.0,0.0,0.0,0.0,0.0,0.0,0.0,-0.2436,-0.6758,-1.2587,-1.4787,-1.4848,-1.5107,-1.519,-1.5259,-1.5259,-1.5259,-1.5259,-1.5259,-1.5272,-1.3952,-0.8094,-0.6403,-0.6415,-0.6444,-0.8588,-1.0749,-1.0749,-1.0764,-1.0787,-1.0821,-1.3257,-1.5492,-1.5533,-1.5343,-1.5174,-1.5234,-1.5411,-1.5364,-1.5113,-1.5181,-1.5113,-1.5174,-1.5181,-1.5248,-1.5432,-1.556,-1.5757,-1.6056,-1.6083,-1.6083,-1.6083,-1.6022,-1.5988,-1.5988,-1.5927,-1.5852,-1.5764,-1.5703,-1.5628,-1.554,-1.5391,-1.5282,-1.5221,-1.5133,-1.5059,-0.9958,-1.0341,-1.0803,-1.2115,-1.2536,-1.2557,-1.2436,-1.2505,-1.2532,-1.2481,-1.2508,-1.2515,-1.2515,-1.2542,-1.1784,-0.9433,-0.395,0.0,0.0,0.0,0.0,0.0,0.0,0.0,0.0,0.0,0.0,0.0,0.0,0.0,0.0,0.0,0.0,0.0,0.0,0.0,0.0,0.0,0.0,0.0,0.0,0.0,0.0,0.0,0.0,0.0,0.0,0.0,0.0,0.0,0.0,0.0,0.0,0.0,-0.095,-0.8252,-1.1061,-1.0924,-1.0924,-1.0973,-1.1042,-1.1042,-1.1042,-1.1042,-1.1042,-1.1047,-0.9522,-0.2092,0.0,0.0,0.0,-0.2694,-0.542,-0.542,-0.5451,-0.5482,-0.5492,-0.8589,-1.2267,-1.5268,-1.5669,-1.5067,-1.3479,-1.3468,-1.3468,-1.3268,-1.3501,-1.414,-1.5073,-1.5289,-1.5411,-1.5669,-1.5696,-1.5805,-1.6062,-1.6083,-1.6083,-1.6083,-1.6083,-1.6083,-1.6083,-1.6083,-1.6029,-1.592,-1.5872,-1.5805,-1.5696,-1.5547,-1.5452,-1.5404,-1.5296,-1.5221,-1.0511,-1.1467,-1.247,-1.251,-1.247,-1.2481,-1.2494,-1.2494,-1.2494,-1.2501,-1.2528,-1.2549,-1.2549,-1.2427,-0.9777,-0.1747,-0.0159,0.0,0.0,0.0,0.0,0.0,0.0,0.0,0.0,0.0,0.0,0.0,0.0,0.0,0.0,0.0,0.0,0.0,0.0,0.0,0.0,0.0,0.0,0.0,0.0,0.0,0.0,0.0,0.0,0.0,0.0,0.0,0.0,0.0,0.0,0.0,0.0,0.0,-0.0,-0.0381,-0.038,-0.0379,-0.0379,-0.0379,-0.0379,-0.0379,-0.0379,-0.0379,-0.0379,-0.0379,-0.0381,-0.0,0.0,0.0,0.0,-0.0196,-0.0196,-0.0196,-0.0196,-0.0197,-0.0198,-0.0397,-0.3578,-1.4107,-1.6178,-1.4331,-0.904,-0.8169,-0.8317,-0.8317,-0.9615,-1.1666,-1.5076,-1.5554,-1.5683,-1.5832,-1.5845,-1.5913,-1.6069,-1.6083,-1.6083,-1.6083,-1.6083,-1.6083,-1.6083,-1.6083,-1.6083,-1.6076,-1.5927,-1.5852,-1.5845,-1.5703,-1.5554,-1.5411,-1.5404,-1.5323,-1.0601,-1.164,-1.2514,-1.2512,-1.2546,-1.2501,-1.2501,-1.2501,-1.2508,-1.2528,-1.2528,-1.0785,-0.53,-0.4213,-0.3294,-0.0477,0.0,0.0,0.0,0.0,0.0,0.0,0.0,0.0,0.0,0.0,0.0,0.0,0.0,0.0,0.0,0.0,0.0,0.0,0.0,0.0,0.0,0.0,0.0,0.0,0.0,0.0,0.0,0.0,0.0,0.0,0.0,0.0,0.0,0.0,0.0,0.0,0.0,0.0,0.0,0.0,0.0,0.0,0.0,0.0,0.0,0.0,0.0,0.0,0.0,0.0,0.0,0.0,0.0,0.0,0.0,0.0,0.0,0.0,0.0,0.0,0.0,0.0,-0.3208,-1.3966,-1.6038,-1.5616,-1.3765,-1.0427,-0.796,-0.7933,-1.1412,-1.4273,-1.5395,-1.5615,-1.5696,-1.5839,-1.5852,-1.5913,-1.6069,-1.6083,-1.6083,-1.6083,-1.6083,-1.6083,-1.6083,-1.6083,-1.6083,-1.6083,-1.6029,-1.6001,-1.6001,-1.5852,-1.5757,-1.5703,-1.5608,-1.5479,-1.1305,-1.1986,-1.2449,-1.2447,-1.2522,-1.2522,-1.2535,-1.2535,-1.2542,-1.2569,-1.0164,-0.7329,-0.4844,-0.2038,0.0,0.0,0.0,0.0,0.0,0.0,0.0,0.0,0.0,0.0,0.0,0.0,0.0,0.0,0.0,0.0,0.0,0.0,0.0,0.0,0.0,0.0,0.0,0.0,0.0,0.0,0.0,0.0,0.0,0.0,0.0,0.0,0.0,0.0,0.0,0.0,0.0,0.0,0.0,0.0,0.0,0.0,0.0,0.0,0.0,0.0,0.0,0.0,0.0,0.0,0.0,0.0,0.0,0.0,0.0,0.0,0.0,0.0,0.0,0.0,0.0,0.0,0.0,0.0,-0.2014,-0.9093,-1.0318,-1.0318,-1.0318,-0.7443,-0.5804,-0.7775,-1.2513,-1.5859,-1.5805,-1.5798,-1.5832,-1.5927,-1.5934,-1.5974,-1.6076,-1.6083,-1.6083,-1.6083,-1.6083,-1.6083,-1.6083,-1.6083,-1.6083,-1.6083,-1.6083,-1.6083,-1.6083,-1.5981,-1.5906,-1.5852,-1.5757,-1.5635,-1.2536,-1.255,-1.247,-1.2481,-1.2238,-1.1927,-1.1797,-1.1797,-1.1784,-1.1784,-0.5612,-0.2489,0.0,0.0,0.0,0.0,0.0,0.0,0.0,0.0,0.0,0.0,0.0,0.0,0.0,0.0,0.0,0.0,0.0,0.0,0.0,0.0,0.0,0.0,0.0,0.0,0.0,0.0,0.0,0.0,0.0,0.0,0.0,0.0,0.0,0.0,0.0,0.0,0.0,0.0,0.0,0.0,0.0,0.0,0.0,0.0,0.0,0.0,0.0,0.0,0.0,0.0,0.0,0.0,0.0,0.0,0.0,0.0,0.0,0.0,0.0,0.0,0.0,0.0,0.0,0.0,0.0,0.0,0.0,0.0,0.0,0.0,0.0,0.0,-0.1815,-0.7239,-1.2711,-1.6171,-1.609,-1.6083,-1.6083,-1.6083,-1.6083,-1.6083,-1.6083,-1.6083,-1.6083,-1.6083,-1.6083,-1.6083,-1.6083,-1.6083,-1.6083,-1.6083,-1.6083,-1.6083,-1.6083,-1.6083,-1.6008,-1.5866,-1.5872,-1.5798,-1.2477,-1.2433,-1.2454,-1.2562,-0.7821,-0.312,-0.3122,-0.3233,-0.3192,-0.3199,-0.1496,-0.2509,-1.0928,-0.5635,0.0,0.0,0.0,0.0,0.0,0.0,0.0,0.0,0.0,0.0,0.0,0.0,0.0,0.0,0.0,0.0,0.0,0.0,0.0,0.0,0.0,0.0,0.0,0.0,0.0,0.0,0.0,0.0,0.0,0.0,0.0,0.0,0.0,0.0,0.0,0.0,0.0,0.0,0.0,0.0,0.0,0.0,0.0,0.0,0.0,0.0,0.0,0.0,0.0,0.0,0.0,0.0,0.0,0.0,0.0,0.0,0.0,0.0,0.0,0.0,0.0,0.0,0.0,0.0,0.0,0.0,0.0,0.0,0.0,0.0,-0.1816,-0.7254,-1.2537,-1.5998,-1.6096,-1.6083,-1.6083,-1.6083,-1.6083,-1.6083,-1.6083,-1.6083,-1.6083,-1.6083,-1.6083,-1.6083,-1.6083,-1.6083,-1.6083,-1.6083,-1.6083,-1.6083,-1.6083,-1.6083,-1.6062,-1.6029,-1.6137,-1.611,-1.2488,-0.9864,-0.703,-0.7045,-0.3439,0.0,0.0,0.0,0.0,0.0,0.0,-0.2471,-1.0269,-0.5316,0.0,0.0,0.0,0.0,0.0,0.0,0.0,0.0,0.0,0.0,0.0,0.0,0.0,0.0,0.0,0.0,0.0,0.0,0.0,0.0,0.0,0.0,0.0,0.0,0.0,0.0,0.0,0.0,0.0,0.0,0.0,0.0,0.0,0.0,0.0,0.0,0.0,0.0,0.0,0.0,0.0,0.0,0.0,0.0,0.0,0.0,0.0,0.0,0.0,0.0,0.0,0.0,0.0,0.0,0.0,0.0,0.0,0.0,0.0,0.0,0.0,0.0,0.0,0.0,0.0,0.0,0.0,0.0,0.0,0.0,-0.1009,-0.4028,-1.1115,-1.5195,-1.2868,-1.4682,-1.6096,-1.6083,-1.6083,-1.6083,-1.6083,-1.6083,-1.6083,-1.6083,-1.6083,-1.6083,-1.6083,-1.6083,-1.6083,-1.6083,-1.6083,-1.6117,-1.6185,-1.6185,-1.6212,-1.6279,-1.6361,-1.6354,-1.0785,-0.5474,0.0,0.0,0.0,0.0,0.0,0.0,0.0,0.0,-0.072,-0.3329,-0.9584,-0.488,0.0,0.0,0.0,0.0,0.0,0.0,0.0,0.0,0.0,0.0,0.0,0.0,0.0,0.0,0.0,0.0,0.0,0.0,0.0,0.0,0.0,0.0,0.0,0.0,0.0,0.0,0.0,0.0,0.0,0.0,0.0,0.0,0.0,0.0,0.0,0.0,0.0,0.0,0.0,0.0,0.0,0.0,0.0,0.0,0.0,0.0,0.0,0.0,0.0,0.0,0.0,0.0,0.0,0.0,0.0,0.0,0.0,0.0,0.0,0.0,0.0,0.0,0.0,0.0,0.0,0.0,0.0,0.0,0.0,0.0,0.0,0.0,-0.7867,-1.2547,-0.8464,-1.269,-1.613,-1.6123,-1.6096,-1.609,-1.611,-1.6096,-1.6083,-1.6083,-1.6083,-1.6083,-1.6083,-1.6083,-1.6083,-1.6083,-1.6103,-1.6178,-1.6307,-1.6327,-1.6402,-1.6524,-1.6544,-1.6551,-0.2187,-0.1095,0.0,0.0,0.0,0.0,0.0,0.0,0.0,0.0,-0.471,-0.9245,-1.0407,-0.4782,0.0,0.0,0.0,0.0,0.0,0.0,0.0,0.0,0.0,0.0,0.0,0.0,0.0,0.0,0.0,0.0,0.0,0.0,0.0,0.0,0.0,0.0,0.0,0.0,0.0,0.0,0.0,0.0,0.0,0.0,0.0,0.0,0.0,0.0,0.0,0.0,0.0,0.0,0.0,0.0,0.0,0.0,0.0,0.0,0.0,0.0,0.0,0.0,0.0,0.0,0.0,0.0,0.0,0.0,0.0,0.0,0.0,0.0,0.0,0.0,0.0,0.0,0.0,0.0,0.0,0.0,0.0,0.0,0.0,0.0,0.0,0.0,-0.1615,-0.4047,-0.7537,-1.2754,-1.6178,-1.63,-1.6178,-1.613,-1.6259,-1.6151,-1.6083,-1.6083,-1.6083,-1.6083,-1.6083,-1.6083,-1.6083,-1.6083,-1.6205,-1.6286,-1.6307,-1.6429,-1.6497,-1.6524,-1.6653,-1.6707,0.0,0.0,0.0,0.0,0.0,0.0,0.0,0.0,0.0,0.0,-0.2711,-0.6254,-1.0058,-0.4887,0.0,0.0,0.0,0.0,0.0,0.0,0.0,0.0,0.0,0.0,0.0,0.0,0.0,0.0,0.0,0.0,0.0,0.0,0.0,0.0,0.0,0.0,0.0,0.0,0.0,0.0,0.0,0.0,0.0,0.0,0.0,0.0,0.0,0.0,0.0,0.0,0.0,0.0,0.0,0.0,0.0,0.0,0.0,0.0,0.0,0.0,0.0,0.0,0.0,0.0,0.0,0.0,0.0,0.0,0.0,0.0,0.0,0.0,0.0,0.0,0.0,0.0,0.0,0.0,0.0,0.0,0.0,0.0,0.0,0.0,0.0,0.0,0.0,-0.1019,-0.3476,-0.8789,-1.3316,-1.6062,-1.6374,-1.6341,-1.6415,-1.6286,-1.6198,-1.6198,-1.6123,-1.6083,-1.6083,-1.6083,-1.6117,-1.6198,-1.6273,-1.6388,-1.6537,-1.6605,-1.668,-1.6761,-1.6836,-1.687,0.0,0.0,0.0,0.0,0.0,0.0,0.0,0.0,0.0,0.0,0.0,-0.1768,-0.7402,-0.3736,0.0,0.0,0.0,0.0,0.0,0.0,0.0,0.0,0.0,0.0,0.0,0.0,0.0,0.0,0.0,0.0,0.0,0.0,0.0,0.0,0.0,0.0,0.0,0.0,0.0,0.0,0.0,0.0,0.0,0.0,0.0,0.0,0.0,0.0,0.0,0.0,0.0,0.0,0.0,0.0,0.0,0.0,0.0,0.0,0.0,0.0,0.0,0.0,0.0,0.0,0.0,0.0,0.0,0.0,0.0,0.0,0.0,0.0,0.0,0.0,0.0,0.0,0.0,0.0,0.0,0.0,0.0,0.0,0.0,0.0,0.0,0.0,0.0,0.0,0.0,-0.3932,-0.915,-1.5866,-1.6605,-1.6544,-1.6571,-1.6435,-1.6341,-1.6313,-1.6198,-1.6117,-1.6083,-1.611,-1.6185,-1.6307,-1.6374,-1.6517,-1.6748,-1.6781,-1.6863,-1.6978,-1.6978,-1.6978,0.0,0.0,0.0,0.0,0.0,0.0,0.0,0.0,0.0,0.0,0.0,-0.0136,-0.0852,-0.0425,0.0,0.0,0.0,0.0,0.0,0.0,0.0,0.0,0.0,0.0,0.0,0.0,0.0,0.0,0.0,0.0,0.0,0.0,0.0,0.0,0.0,0.0,0.0,0.0,0.0,0.0,0.0,0.0,0.0,0.0,0.0,0.0,0.0,0.0,0.0,0.0,0.0,0.0,0.0,0.0,0.0,0.0,0.0,0.0,0.0,0.0,0.0,0.0,0.0,0.0,0.0,0.0,0.0,0.0,0.0,0.0,0.0,0.0,0.0,0.0,0.0,0.0,0.0,0.0,0.0,0.0,0.0,0.0,0.0,0.0,0.0,0.0,0.0,0.0,0.0,-0.0419,-0.4835,-1.5798,-1.6802,-1.6625,-1.672,-1.6592,-1.6449,-1.632,-1.6293,-1.6225,-1.609,-1.6218,-1.6293,-1.6307,-1.6571,-1.672,-1.6748,-1.689,-1.6965,-1.6978,-1.6978,-1.6978,0.0,0.0,0.0,0.0,0.0,0.0,0.0,0.0,0.0,0.0,0.0,0.0,0.0,0.0,0.0,0.0,0.0,0.0,0.0,0.0,0.0,0.0,0.0,0.0,0.0,0.0,0.0,0.0,0.0,0.0,0.0,0.0,0.0,0.0,0.0,0.0,0.0,0.0,0.0,0.0,0.0,0.0,0.0,0.0,0.0,0.0,0.0,0.0,0.0,0.0,0.0,0.0,0.0,0.0,0.0,0.0,0.0,0.0,0.0,0.0,0.0,0.0,0.0,0.0,0.0,0.0,0.0,0.0,0.0,0.0,0.0,0.0,0.0,0.0,0.0,0.0,0.0,0.0,0.0,0.0,0.0,0.0,0.0,0.0,0.0,0.0,0.0,0.0,0.0,0.0,-0.1695,-0.6382,-1.2896,-1.6876,-1.6917,-1.6761,-1.6592,-1.6449,-1.6354,-1.6239,-1.609,-1.6232,-1.6347,-1.6435,-1.6639,-1.6795,-1.689,-1.6951,-1.6978,-1.6978,-1.6978,-1.6978,0.0,0.0,0.0,0.0,0.0,0.0,0.0,0.0,0.0,0.0,0.0,0.0,0.0,0.0,0.0,0.0,0.0,0.0,0.0,0.0,0.0,0.0,0.0,0.0,0.0,0.0,0.0,0.0,0.0,0.0,0.0,0.0,0.0,0.0,0.0,0.0,0.0,0.0,0.0,0.0,0.0,0.0,0.0,0.0,0.0,0.0,0.0,0.0,0.0,0.0,0.0,0.0,0.0,0.0,0.0,0.0,0.0,0.0,0.0,0.0,0.0,0.0,0.0,0.0,0.0,0.0,0.0,0.0,0.0,0.0,0.0,0.0,0.0,0.0,0.0,0.0,0.0,0.0,0.0,0.0,0.0,0.0,0.0,0.0,0.0,0.0,0.0,0.0,0.0,0.0,0.0,0.0,-0.871,-1.5115,-1.6822,-1.6897,-1.6754,-1.6598,-1.6449,-1.6307,-1.6157,-1.6293,-1.6422,-1.6517,-1.6714,-1.687,-1.6978,-1.6978,-1.6978,-1.6978,-1.6978,-1.6978,0.0,0.0,0.0,0.0,0.0,0.0,0.0,0.0,0.0,0.0,0.0,0.0,0.0,0.0,0.0,0.0,0.0,0.0,0.0,0.0,0.0,0.0,0.0,0.0,0.0,0.0,0.0,0.0,0.0,0.0,0.0,0.0,0.0,0.0,0.0,0.0,0.0,0.0,0.0,0.0,0.0,0.0,0.0,0.0,0.0,0.0,0.0,0.0,0.0,0.0,0.0,0.0,0.0,0.0,0.0,0.0,0.0,0.0,0.0,0.0,0.0,0.0,0.0,0.0,0.0,0.0,0.0,0.0,0.0,0.0,0.0,0.0,0.0,0.0,0.0,0.0,0.0,0.0,0.0,0.0,0.0,0.0,0.0,0.0,0.0,0.0,0.0,0.0,0.0,0.0,0.0,0.0,-0.5111,-1.0856,-1.6604,-1.6998,-1.691,-1.6754,-1.6605,-1.6456,-1.6313,-1.6442,-1.6517,-1.6524,-1.6822,-1.6978,-1.6978,-1.6978,-1.6978,-1.6978,-1.6978,-1.6978,0.0,0.0,0.0,0.0,0.0,0.0,0.0,0.0,0.0,0.0,0.0,0.0,0.0,0.0,0.0,0.0,0.0,0.0,0.0,0.0,0.0,0.0,0.0,0.0,0.0,0.0,0.0,0.0,0.0,0.0,0.0,0.0,0.0,0.0,0.0,0.0,0.0,0.0,0.0,0.0,0.0,0.0,0.0,0.0,0.0,0.0,0.0,0.0,0.0,0.0,0.0,0.0,0.0,0.0,0.0,0.0,0.0,0.0,0.0,0.0,0.0,0.0,0.0,0.0,0.0,0.0,0.0,0.0,0.0,0.0,0.0,0.0,0.0,0.0,0.0,0.0,0.0,0.0,0.0,0.0,0.0,0.0,0.0,0.0,0.0,0.0,0.0,0.0,0.0,0.0,0.0,0.0,-0.1702,-0.6589,-1.6215,-1.7039,-1.6937,-1.6761,-1.6605,-1.6456,-1.6313,-1.6442,-1.6524,-1.6524,-1.6822,-1.6978,-1.6978,-1.6978,-1.6978,-1.6978,-1.6978,-1.6978,0.0,0.0,0.0,0.0,0.0,0.0,0.0,0.0,0.0,0.0,0.0,0.0,0.0,0.0,0.0,0.0,0.0,0.0,0.0,0.0,0.0,0.0,0.0,0.0,0.0,0.0,0.0,0.0,0.0,0.0,0.0,0.0,0.0,0.0,0.0,0.0,0.0,0.0,0.0,0.0,0.0,0.0,0.0,0.0,0.0,0.0,0.0,0.0,0.0,0.0,0.0,0.0,0.0,0.0,0.0,0.0,0.0,0.0,0.0,0.0,0.0,0.0,0.0,0.0,0.0,0.0,0.0,0.0,0.0,0.0,0.0,0.0,0.0,0.0,0.0,0.0,0.0,0.0,0.0,0.0,0.0,0.0,0.0,0.0,0.0,0.0,0.0,0.0,0.0,0.0,0.0,0.0,0.0,-0.2976,-1.0,-1.4469,-1.6978,-1.6863,-1.67,-1.6544,-1.6395,-1.653,-1.6578,-1.6524,-1.6822,-1.6978,-1.6978,-1.6978,-1.6978,-1.6978,-1.6978,-1.6978,0.0,0.0,0.0,0.0,0.0,0.0,0.0,0.0,0.0,0.0,0.0,0.0,0.0,0.0,0.0,0.0,0.0,0.0,0.0,0.0,0.0,0.0,0.0,0.0,0.0,0.0,0.0,0.0,0.0,0.0,0.0,0.0,0.0,0.0,0.0,0.0,0.0,0.0,0.0,0.0,0.0,0.0,0.0,0.0,0.0,0.0,0.0,0.0,0.0,0.0,0.0,0.0,0.0,0.0,0.0,0.0,0.0,0.0,0.0,0.0,0.0,0.0,0.0,0.0,0.0,0.0,0.0,0.0,0.0,0.0,0.0,0.0,0.0,0.0,0.0,0.0,0.0,0.0,0.0,0.0,0.0,0.0,0.0,0.0,0.0,0.0,0.0,0.0,0.0,0.0,0.0,0.0,0.0,0.0,0.0,-0.9976,-1.6604,-1.7032,-1.6856,-1.668,-1.653,-1.6666,-1.668,-1.6524,-1.6822,-1.6978,-1.6978,-1.6978,-1.6978,-1.6978,-1.6978,-1.6978,0.0,0.0,0.0,0.0,0.0,0.0,0.0,0.0,0.0,0.0,0.0,0.0,0.0,0.0,0.0,0.0,0.0,0.0,0.0,0.0,0.0,0.0,0.0,0.0,0.0,0.0,0.0,0.0,0.0,0.0,0.0,0.0,0.0,0.0,0.0,0.0,0.0,0.0,0.0,0.0,0.0,0.0,0.0,0.0,0.0,0.0,0.0,0.0,0.0,0.0,0.0,0.0,0.0,0.0,0.0,0.0,0.0,0.0,0.0,0.0,0.0,0.0,0.0,0.0,0.0,0.0,0.0,0.0,0.0,0.0,0.0,0.0,0.0,0.0,0.0,0.0,0.0,0.0,0.0,0.0,0.0,0.0,0.0,0.0,0.0,0.0,0.0,0.0,0.0,0.0,0.0,0.0,0.0,0.0,0.0,-0.6369,-1.2319,-1.6815,-1.6856,-1.668,-1.653,-1.6666,-1.668,-1.6524,-1.6822,-1.6978,-1.6978,-1.6978,-1.6978,-1.6978,-1.6978,-1.6978,0.0,0.0,0.0,0.0,0.0,0.0,0.0,0.0,0.0,0.0,0.0,0.0,0.0,0.0,0.0,0.0,0.0,0.0,0.0,0.0,0.0,0.0,0.0,0.0,0.0,0.0,0.0,0.0,0.0,0.0,0.0,0.0,0.0,0.0,0.0,0.0,0.0,0.0,0.0,0.0,0.0,0.0,0.0,0.0,0.0,0.0,0.0,0.0,0.0,0.0,0.0,0.0,0.0,0.0,0.0,0.0,0.0,0.0,0.0,0.0,0.0,0.0,0.0,0.0,0.0,0.0,0.0,0.0,0.0,0.0,0.0,0.0,0.0,0.0,0.0,0.0,0.0,0.0,0.0,0.0,0.0,0.0,0.0,0.0,0.0,0.0,0.0,0.0,0.0,0.0,0.0,0.0,0.0,0.0,0.0,-0.2763,-0.8067,-1.6419,-1.6944,-1.6802,-1.6632,-1.6775,-1.6815,-1.6734,-1.6897,-1.6978,-1.6978,-1.6978,-1.6978,-1.6978,-1.6978,-1.6978,0.0,0.0,0.0,0.0,0.0,0.0,0.0,0.0,0.0,0.0,0.0,0.0,0.0,0.0,0.0,0.0,0.0,0.0,0.0,0.0,0.0,0.0,0.0,0.0,0.0,0.0,0.0,0.0,0.0,0.0,0.0,0.0,0.0,0.0,0.0,0.0,0.0,0.0,0.0,0.0,0.0,0.0,0.0,0.0,0.0,0.0,0.0,0.0,0.0,0.0,0.0,0.0,0.0,0.0,0.0,0.0,0.0,0.0,0.0,0.0,0.0,0.0,0.0,0.0,0.0,0.0,0.0,0.0,0.0,0.0,0.0,0.0,0.0,0.0,0.0,0.0,0.0,0.0,0.0,0.0,0.0,0.0,0.0,0.0,0.0,0.0,0.0,0.0,0.0,0.0,0.0,0.0,0.0,0.0,0.0,0.0,-0.4888,-1.6247,-1.706,-1.6958,-1.6795,-1.689,-1.6958,-1.6978,-1.6978,-1.6978,-1.6978,-1.6978,-1.6978,-1.6978,-1.6978,-1.6978,0.0,0.0,0.0,0.0,0.0,0.0,0.0,0.0,0.0,0.0,0.0,0.0,0.0,0.0,0.0,0.0,0.0,0.0,0.0,0.0,0.0,0.0,0.0,0.0,0.0,0.0,0.0,0.0,0.0,0.0,0.0,0.0,0.0,0.0,0.0,0.0,0.0,0.0,0.0,0.0,0.0,0.0,0.0,0.0,0.0,0.0,0.0,0.0,0.0,0.0,0.0,0.0,0.0,0.0,0.0,0.0,0.0,0.0,0.0,0.0,0.0,0.0,0.0,0.0,0.0,0.0,0.0,0.0,0.0,0.0,0.0,0.0,0.0,0.0,0.0,0.0,0.0,0.0,0.0,0.0,0.0,0.0,0.0,0.0,0.0,0.0,0.0,0.0,0.0,0.0,0.0,0.0,0.0,0.0,0.0,0.0,-0.49,-1.6292,-1.708,-1.7005,-1.6944,-1.6842,-1.6849,-1.6978,-1.6978,-1.6978,-1.6978,-1.6978,-1.6978,-1.6978,-1.6978,-1.6978,0.0,0.0,0.0,0.0,0.0,0.0,0.0,0.0,0.0,0.0,0.0,0.0,0.0,0.0,0.0,0.0,0.0,0.0,0.0,0.0,0.0,0.0,0.0,0.0,0.0,0.0,0.0,0.0,0.0,0.0,0.0,0.0,0.0,0.0,0.0,0.0,0.0,0.0,0.0,0.0,0.0,0.0,0.0,0.0,0.0,0.0,0.0,0.0,0.0,0.0,0.0,0.0,0.0,0.0,0.0,0.0,0.0,0.0,0.0,0.0,0.0,0.0,0.0,0.0,0.0,0.0,0.0,0.0,0.0,0.0,0.0,0.0,0.0,0.0,0.0,0.0,0.0,0.0,0.0,0.0,0.0,0.0,0.0,0.0,0.0,0.0,0.0,0.0,0.0,0.0,0.0,0.0,0.0,0.0,0.0,0.0,-0.362,-1.1935,-1.5332,-1.7053,-1.7093,-1.6951,-1.6944,-1.7093,-1.7019,-1.6978,-1.6978,-1.6978,-1.6978,-1.6978,-1.6978,-1.6978,0.0,0.0,0.0,0.0,0.0,0.0,0.0,0.0,0.0,0.0,0.0,0.0,0.0,0.0,0.0,0.0,0.0,0.0,0.0,0.0,0.0,0.0,0.0,0.0,0.0,0.0,0.0,0.0,0.0,0.0,0.0,0.0,0.0,0.0,0.0,0.0,0.0,0.0,0.0,0.0,0.0,0.0,0.0,0.0,0.0,0.0,0.0,0.0,0.0,0.0,0.0,0.0,0.0,0.0,0.0,0.0,0.0,0.0,0.0,0.0,0.0,0.0,0.0,0.0,0.0,0.0,0.0,0.0,0.0,0.0,0.0,0.0,0.0,0.0,0.0,0.0,0.0,0.0,0.0,0.0,0.0,0.0,0.0,0.0,0.0,0.0,0.0,0.0,0.0,0.0,0.0,0.0,0.0,0.0,0.0,0.0,-0.1917,-0.6172,-1.3222,-1.7134,-1.7209,-1.7093,-1.708,-1.7188,-1.7053,-1.6978,-1.6978,-1.6978,-1.6978,-1.6978,-1.6978,-1.6978,0.0,0.0,0.0,0.0,0.0,0.0,0.0,0.0,0.0,0.0,0.0,0.0,0.0,0.0,0.0,0.0,0.0,0.0,0.0,0.0,0.0,0.0,0.0,0.0,0.0,0.0,0.0,0.0,0.0,0.0,0.0,0.0,0.0,0.0,0.0,0.0,0.0,0.0,0.0,0.0,0.0,0.0,0.0,0.0,0.0,0.0,0.0,0.0,0.0,0.0,0.0,0.0,0.0,0.0,0.0,0.0,0.0,0.0,0.0,0.0,0.0,0.0,0.0,0.0,0.0,0.0,0.0,0.0,0.0,0.0,0.0,0.0,0.0,0.0,0.0,0.0,0.0,0.0,0.0,0.0,0.0,0.0,0.0,0.0,0.0,0.0,0.0,0.0,0.0,0.0,0.0,0.0,0.0,0.0,0.0,0.0,-0.0214,-0.0645,-1.1201,-1.7297,-1.7263,-1.7209,-1.7182,-1.7195,-1.7053,-1.6978,-1.6978,-1.6978,-1.6978,-1.6978,-1.6978,-1.6978,0.0,0.0,0.0,0.0,0.0,0.0,0.0,0.0,0.0,0.0,0.0,0.0,0.0,0.0,0.0,0.0,0.0,0.0,0.0,0.0,0.0,0.0,0.0,0.0,0.0,0.0,0.0,0.0,0.0,0.0,0.0,0.0,0.0,0.0,0.0,0.0,0.0,0.0,0.0,0.0,0.0,0.0,0.0,0.0,0.0,0.0,0.0,0.0,0.0,0.0,0.0,0.0,0.0,0.0,0.0,0.0,0.0,0.0,0.0,0.0,0.0,0.0,0.0,0.0,0.0,0.0,0.0,0.0,0.0,0.0,0.0,0.0,0.0,0.0,0.0,0.0,0.0,0.0,0.0,0.0,0.0,0.0,0.0,0.0,0.0,0.0,0.0,0.0,0.0,0.0,0.0,0.0,0.0,0.0,0.0,0.0,0.0,0.0,-0.4092,-0.9952,-1.71,-1.7439,-1.7365,-1.7338,-1.7188,-1.7066,-1.6978,-1.6978,-1.6978,-1.6978,-1.6978,-1.6978,0.0,0.0,0.0,0.0,0.0,0.0,0.0,0.0,0.0,0.0,0.0,0.0,0.0,0.0,0.0,0.0,0.0,0.0,0.0,0.0,0.0,0.0,0.0,0.0,0.0,0.0,0.0,0.0,0.0,0.0,0.0,0.0,0.0,0.0,0.0,0.0,0.0,0.0,0.0,0.0,0.0,0.0,0.0,0.0,0.0,0.0,0.0,0.0,0.0,0.0,0.0,0.0,0.0,0.0,0.0,0.0,0.0,0.0,0.0,0.0,0.0,0.0,0.0,0.0,0.0,0.0,0.0,0.0,0.0,0.0,0.0,0.0,0.0,0.0,0.0,0.0,0.0,0.0,0.0,0.0,0.0,0.0,0.0,0.0,0.0,0.0,0.0,0.0,0.0,0.0,0.0,0.0,0.0,0.0,0.0,0.0,0.0,0.0,0.0,-0.3708,-1.1695,-1.5615,-1.7528,-1.7446,-1.7277,-1.7121,-1.6978,-1.6978,-1.6978,-1.6978,-1.6978,-1.6978,0.0,0.0,0.0,0.0,0.0,0.0,0.0,0.0,0.0,0.0,0.0,0.0,0.0,0.0,0.0,0.0,0.0,0.0,0.0,0.0,0.0,0.0,0.0,0.0,0.0,0.0,0.0,0.0,0.0,0.0,0.0,0.0,0.0,0.0,0.0,0.0,0.0,0.0,0.0,0.0,0.0,0.0,0.0,0.0,0.0,0.0,0.0,0.0,0.0,0.0,0.0,0.0,0.0,0.0,0.0,0.0,0.0,0.0,0.0,0.0,0.0,0.0,0.0,0.0,0.0,0.0,0.0,0.0,0.0,0.0,0.0,0.0,0.0,0.0,0.0,0.0,0.0,0.0,0.0,0.0,0.0,0.0,0.0,0.0,0.0,0.0,0.0,0.0,0.0,0.0,0.0,0.0,0.0,0.0,0.0,0.0,0.0,0.0,0.0,0.0,0.0,-1.1471,-1.7636,-1.75,-1.7297,-1.7121,-1.6978,-1.6978,-1.6978,-1.6978,-1.6978,-1.6978,0.0,0.0,0.0,0.0,0.0,0.0,0.0,0.0,0.0,0.0,0.0,0.0,0.0,0.0,0.0,0.0,0.0,0.0,0.0,0.0,0.0,0.0,0.0,0.0,0.0,0.0,0.0,0.0,0.0,0.0,0.0,0.0,0.0,0.0,0.0,0.0,0.0,0.0,0.0,0.0,0.0,0.0,0.0,0.0,0.0,0.0,0.0,0.0,0.0,0.0,0.0,0.0,0.0,0.0,0.0,0.0,0.0,0.0,0.0,0.0,0.0,0.0,0.0,0.0,0.0,0.0,0.0,0.0,0.0,0.0,0.0,0.0,0.0,0.0,0.0,0.0,0.0,0.0,0.0,0.0,0.0,0.0,0.0,0.0,0.0,0.0,0.0,0.0,0.0,0.0,0.0,0.0,0.0,0.0,0.0,0.0,0.0,0.0,0.0,0.0,0.0,-0.334,-0.9279,-1.7494,-1.7433,-1.7263,-1.6978,-1.6978,-1.6978,-1.6978,-1.6978,-1.6978,0.0,0.0,0.0,0.0,0.0,0.0,0.0,0.0,0.0,0.0,0.0,0.0,0.0,0.0,0.0,0.0,0.0,0.0,0.0,0.0,0.0,0.0,0.0,0.0,0.0,0.0,0.0,0.0,0.0,0.0,0.0,0.0,0.0,0.0,0.0,0.0,0.0,0.0,0.0,0.0,0.0,0.0,0.0,0.0,0.0,0.0,0.0,0.0,0.0,0.0,0.0,0.0,0.0,0.0,0.0,0.0,0.0,0.0,0.0,0.0,0.0,0.0,0.0,0.0,0.0,0.0,0.0,0.0,0.0,0.0,0.0,0.0,0.0,0.0,0.0,0.0,0.0,0.0,0.0,0.0,0.0,0.0,0.0,0.0,0.0,0.0,0.0,0.0,0.0,0.0,0.0,0.0,0.0,0.0,0.0,0.0,0.0,0.0,0.0,0.0,0.0,0.0,-0.3329,-1.051,-1.5085,-1.7136,-1.7087,-1.7019,-1.6978,-1.6978,-1.6978,-1.6978,0.0,0.0,0.0,0.0,0.0,0.0,0.0,0.0,0.0,0.0,0.0,0.0,0.0,0.0,0.0,0.0,0.0,0.0,0.0,0.0,0.0,0.0,0.0,0.0,0.0,0.0,0.0,0.0,0.0,0.0,0.0,0.0,0.0,0.0,0.0,0.0,0.0,0.0,0.0,0.0,0.0,0.0,0.0,0.0,0.0,0.0,0.0,0.0,0.0,0.0,0.0,0.0,0.0,0.0,0.0,0.0,0.0,0.0,0.0,0.0,0.0,0.0,0.0,0.0,0.0,0.0,0.0,0.0,0.0,0.0,0.0,0.0,0.0,0.0,0.0,0.0,0.0,0.0,0.0,0.0,0.0,0.0,0.0,0.0,0.0,0.0,0.0,0.0,0.0,0.0,0.0,0.0,0.0,0.0,0.0,0.0,0.0,0.0,0.0,0.0,0.0,0.0,0.0,0.0,-1.028,-1.6099,-1.7049,-1.7073,-1.6985,-1.6985,-1.6985,-1.6978,0.0,0.0,0.0,0.0,0.0,0.0,0.0,0.0,0.0,0.0,0.0,0.0,0.0,0.0,0.0,0.0,0.0,0.0,0.0,0.0,0.0,0.0,0.0,0.0,0.0,0.0,0.0,0.0,0.0,0.0,0.0,0.0,0.0,0.0,0.0,0.0,0.0,0.0,0.0,0.0,0.0,0.0,0.0,0.0,0.0,0.0,0.0,0.0,0.0,0.0,0.0,0.0,0.0,0.0,0.0,0.0,0.0,0.0,0.0,0.0,0.0,0.0,0.0,0.0,0.0,0.0,0.0,0.0,0.0,0.0,0.0,0.0,0.0,0.0,0.0,0.0,0.0,0.0,0.0,0.0,0.0,0.0,0.0,0.0,0.0,0.0,0.0,0.0,0.0,0.0,0.0,0.0,0.0,0.0,0.0,0.0,0.0,0.0,0.0,0.0,0.0,0.0,0.0,0.0,-0.2398,-0.8029,-1.7096,-1.6902,-1.7019,-1.7019,-1.6992,-1.6978,0.0,0.0,0.0,0.0,0.0,0.0,0.0,0.0,0.0,0.0,0.0,0.0,0.0,0.0,0.0,0.0,0.0,0.0,0.0,0.0,0.0,0.0,0.0,0.0,0.0,0.0,0.0,0.0,0.0,0.0,0.0,0.0,0.0,0.0,0.0,0.0,0.0,0.0,0.0,0.0,0.0,0.0,0.0,0.0,0.0,0.0,0.0,0.0,0.0,0.0,0.0,0.0,0.0,0.0,0.0,0.0,0.0,0.0,0.0,0.0,0.0,0.0,0.0,0.0,0.0,0.0,0.0,0.0,0.0,0.0,0.0,0.0,0.0,0.0,0.0,0.0,0.0,0.0,0.0,0.0,0.0,0.0,0.0,0.0,0.0,0.0,0.0,0.0,0.0,0.0,0.0,0.0,0.0,0.0,0.0,0.0,0.0,0.0,0.0,0.0,0.0,0.0,0.0,0.0,0.0,-0.2826,-0.8884,-1.1547,-1.4241,-1.7032,-1.7012,-1.6998,0.0,0.0,0.0,0.0,0.0,0.0,0.0,0.0,0.0,0.0,0.0,0.0,0.0,0.0,0.0,0.0,0.0,0.0,0.0,0.0,0.0,0.0,0.0,0.0,0.0,0.0,0.0,0.0,0.0,0.0,0.0,0.0,0.0,0.0,0.0,0.0,0.0,0.0,0.0,0.0,0.0,0.0,0.0,0.0,0.0,0.0,0.0,0.0,0.0,0.0,0.0,0.0,0.0,0.0,0.0,0.0,0.0,0.0,0.0,0.0,0.0,0.0,0.0,0.0,0.0,0.0,0.0,0.0,0.0,0.0,0.0,0.0,0.0,0.0,0.0,0.0,0.0,0.0,0.0,0.0,0.0,0.0,0.0,0.0,0.0,0.0,0.0,0.0,0.0,0.0,0.0,0.0,0.0,0.0,0.0,0.0,0.0,0.0,0.0,0.0,0.0,0.0,0.0,0.0,0.0,0.0,-0.0,-0.4715,-0.9352,-1.403,-1.6169,-1.7019,0.0,0.0,0.0,0.0,0.0,0.0,0.0,0.0,0.0,0.0,0.0,0.0,0.0,0.0,0.0,0.0,0.0,0.0,0.0,0.0,0.0,0.0,0.0,0.0,0.0,0.0,0.0,0.0,0.0,0.0,0.0,0.0,0.0,0.0,0.0,0.0,0.0,0.0,0.0,0.0,0.0,0.0,0.0,0.0,0.0,0.0,0.0,0.0,0.0,0.0,0.0,0.0,0.0,0.0,0.0,0.0,0.0,0.0,0.0,0.0,0.0,0.0,0.0,0.0,0.0,0.0,0.0,0.0,0.0,0.0,0.0,0.0,0.0,0.0,0.0,0.0,0.0,0.0,0.0,0.0,0.0,0.0,0.0,0.0,0.0,0.0,0.0,0.0,0.0,0.0,0.0,0.0,0.0,0.0,0.0,0.0,0.0,0.0,0.0,0.0,0.0,0.0,0.0,0.0,0.0,0.0,-0.0,-0.0864,-0.1498,-0.2547,-1.2319,-1.7032,0.0,0.0,0.0,0.0,0.0,0.0,0.0,0.0,0.0,0.0,0.0,0.0,0.0,0.0,0.0,0.0,0.0,0.0,0.0,0.0,0.0,0.0,0.0,0.0,0.0,0.0,0.0,0.0,0.0,0.0,0.0,0.0,0.0,0.0,0.0,0.0,0.0,0.0,0.0,0.0,0.0,0.0,0.0,0.0,0.0,0.0,0.0,0.0,0.0,0.0,0.0,0.0,0.0,0.0,0.0,0.0,0.0,0.0,0.0,0.0,0.0,0.0,0.0,0.0,0.0,0.0,0.0,0.0,0.0,0.0,0.0,0.0,0.0,0.0,0.0,0.0,0.0,0.0,0.0,0.0,0.0,0.0,0.0,0.0,0.0,0.0,0.0,0.0,0.0,0.0,0.0,0.0,0.0,0.0,0.0,0.0,0.0,0.0,0.0,0.0,0.0,0.0,0.0,0.0,0.0,0.0,0.0,0.0,0.0,-0.0212,-0.5093,-1.0835,0.0,0.0,0.0,0.0,0.0,0.0,0.0,0.0,0.0,0.0,0.0,0.0,0.0,0.0,0.0,0.0,0.0,0.0,0.0,0.0,0.0,0.0,0.0,0.0,0.0,0.0,0.0,0.0,0.0,0.0,0.0,0.0,0.0,0.0,0.0,0.0,0.0,0.0,0.0,0.0,0.0,0.0,0.0,0.0,0.0,0.0,0.0,0.0,0.0,0.0,0.0,0.0,0.0,0.0,0.0,0.0,0.0,0.0,0.0,0.0,0.0,0.0,0.0,0.0,0.0,0.0,0.0,0.0,0.0,0.0,0.0,0.0,0.0,0.0,0.0,0.0,0.0,0.0,0.0,0.0,0.0,0.0,0.0,0.0,0.0,0.0,0.0,0.0,0.0,0.0,0.0,0.0,0.0,0.0,0.0,0.0,0.0,0.0,0.0,0.0,0.0,0.0,0.0,0.0,0.0,0.0,0.0,0.0,0.0,0.0,0.0,-0.5311,0.0,0.0,0.0,0.0,0.0,0.0,0.0,0.0,0.0,0.0,0.0,0.0,0.0,0.0,0.0,0.0,0.0,0.0,0.0,0.0,0.0,0.0,0.0,0.0,0.0,0.0,0.0,0.0,0.0,0.0,0.0,0.0,0.0,0.0,0.0,0.0,0.0,0.0,0.0,0.0,0.0,0.0,0.0,0.0,0.0,0.0,0.0,0.0,0.0,0.0,0.0,0.0,0.0,0.0,0.0,0.0,0.0,0.0,0.0,0.0,0.0,0.0,0.0,0.0,0.0,0.0,0.0,0.0,0.0,0.0,0.0,0.0,0.0,0.0,0.0,0.0,0.0,0.0,0.0,0.0,0.0,0.0,0.0,0.0,0.0,0.0,0.0,0.0,0.0,0.0,0.0,0.0,0.0,0.0,0.0,0.0,0.0,0.0,0.0,0.0,0.0,0.0,0.0,0.0,0.0,0.0,0.0,0.0,0.0,0.0,0.0,-0.3189,0.0,0.0,0.0,0.0,0.0,0.0,0.0,0.0,0.0,0.0,0.0,0.0,0.0,0.0,0.0,0.0,0.0,0.0,0.0,0.0,0.0,0.0,0.0,0.0,0.0,0.0,0.0,0.0,0.0,0.0,0.0,0.0,0.0,0.0,0.0,0.0,0.0,0.0,0.0,0.0,0.0,0.0,0.0,0.0,0.0,0.0,0.0,0.0,0.0,0.0,0.0,0.0,0.0,0.0,0.0,0.0,0.0,0.0,0.0,0.0,0.0,0.0,0.0,0.0,0.0,0.0,0.0,0.0,0.0,0.0,0.0,0.0,0.0,0.0,0.0,0.0,0.0,0.0,0.0,0.0,0.0,0.0,0.0,0.0,0.0,0.0,0.0,0.0,0.0,0.0,0.0,0.0,0.0,0.0,0.0,0.0,0.0,0.0,0.0,0.0,0.0,0.0,0.0,0.0,0.0,0.0,0.0,0.0,0.0,0.0,0.0,-0.1064,0.0,0.0,0.0,0.0,0.0,0.0,0.0,0.0,0.0,0.0,0.0,0.0,0.0,0.0,0.0,0.0,0.0,0.0,0.0,0.0,0.0,0.0,0.0,0.0,0.0,0.0,0.0,0.0,0.0,0.0,0.0,0.0,0.0,0.0,0.0,0.0,0.0,0.0,0.0,0.0,0.0,0.0,0.0,0.0,0.0,0.0,0.0,0.0,0.0,0.0,0.0,0.0,0.0,0.0,0.0,0.0,0.0,0.0,0.0,0.0,0.0,0.0,0.0,0.0,0.0,0.0,0.0,0.0,0.0,0.0,0.0,0.0,0.0,0.0,0.0,0.0,0.0,0.0,0.0,0.0,0.0,0.0,0.0,0.0,0.0,0.0,0.0,0.0,0.0,0.0,0.0,0.0,0.0,0.0,0.0,0.0,0.0,0.0,0.0,0.0,0.0,0.0,0.0,0.0,0.0,0.0,0.0,0.0,0.0,0.0,0.0,0.0,0.0,0.0,0.0,0.0,0.0,0.0,0.0,0.0,0.0,0.0,0.0,0.0,0.0,0.0,0.0,0.0,0.0,0.0,0.0,0.0,0.0,0.0,0.0,0.0,0.0,0.0,0.0,0.0,0.0,0.0,0.0,0.0,0.0,0.0,0.0,0.0,0.0,0.0,0.0,0.0,0.0,0.0,0.0,0.0,0.0,0.0,0.0,0.0,0.0,0.0,0.0,0.0,0.0,0.0,0.0,0.0,0.0,0.0,0.0,0.0,0.0,0.0,0.0,0.0,0.0,0.0,0.0,0.0,0.0,0.0,0.0,0.0,0.0,0.0,0.0,0.0,0.0,0.0,0.0,0.0,0.0,0.0,0.0,0.0,0.0,0.0,0.0,0.0,0.0,0.0,0.0,0.0,0.0,0.0,0.0,0.0,0.0,0.0,0.0,0.0,0.0,0.0,0.0,0.0,0.0,0.0,0.0,0.0,0.0,0.0,0.0,0.0,0.0,0.0,0.0,0.0,0.0,0.0,0.0,0.0,0.0,0.0,0.0,0.0,0.0,0.0,0.0,0.0,0.0,0.0,0.0,0.0,0.0,0.0,0.0,0.0,0.0,0.0,0.0,0.0,0.0,0.0,0.0,0.0,0.0,0.0,0.0,0.0,0.0,0.0,0.0,0.0,0.0,0.0,0.0,0.0,0.0,0.0,0.0,0.0,0.0,0.0,0.0,0.0,0.0,0.0,0.0,0.0,0.0,0.0,0.0,0.0,0.0,0.0,0.0,0.0,0.0,0.0,0.0,0.0,0.0,0.0,0.0,0.0,0.0,0.0,0.0,0.0,0.0,0.0,0.0,0.0,0.0,0.0,0.0,0.0,0.0,0.0,0.0,0.0,0.0,0.0,0.0,0.0,0.0,0.0,0.0,0.0,0.0,0.0,0.0,0.0,0.0,0.0,0.0,0.0,0.0,0.0,0.0,0.0,0.0,0.0,0.0,0.0,0.0,0.0,0.0,0.0,0.0,0.0,0.0,0.0,0.0,0.0,0.0,0.0,0.0,0.0,0.0,0.0,0.0,0.0,0.0,0.0,0.0,0.0,0.0,0.0,0.0,0.0,0.0,0.0,0.0,0.0,0.0,0.0,0.0,0.0,0.0,0.0,0.0,0.0,0.0,0.0,0.0,0.0,0.0,0.0,0.0,0.0,0.0,0.0,0.0,0.0,0.0,0.0,0.0,0.0,0.0,0.0,0.0,0.0,0.0,0.0,0.0,0.0,0.0,0.0,0.0,0.0,0.0,0.0,0.0,0.0,0.0,0.0,0.0,0.0,0.0,0.0,0.0,0.0,0.0,0.0,0.0,0.0,0.0,0.0,0.0,0.0,0.0,0.0,0.0,0.0,0.0,0.0,0.0,0.0,0.0,0.0,0.0,0.0,0.0,0.0,0.0,0.0,0.0,0.0,0.0,0.0,0.0,0.0,0.0,0.0,0.0,0.0,0.0,0.0,0.0,0.0,0.0,0.0,0.0,0.0,0.0,0.0,0.0,0.0,0.0,0.0,0.0,0.0,0.0,0.0,0.0,0.0,0.0,0.0,0.0,0.0,0.0,0.0,0.0,0.0,0.0,0.0,0.0,0.0,0.0,0.0,0.0,0.0,0.0,0.0,0.0,0.0,0.0,0.0,0.0,0.0,0.0,0.0,0.0,0.0,0.0,0.0,0.0,0.0,0.0,0.0,0.0,0.0,0.0,0.0,0.0,0.0,0.0,0.0,0.0,0.0,0.0,0.0,0.0,0.0,0.0,0.0,0.0,0.0,0.0,0.0,0.0,0.0,0.0,0.0,0.0,0.0,0.0,0.0,0.0,0.0,0.0,0.0,0.0,0.0,0.0,0.0,0.0,0.0,0.0,0.0,0.0,0.0,0.0,0.0,0.0,0.0,0.0,0.0,0.0,0.0,0.0,0.0,0.0,0.0,0.0,0.0,0.0,0.0,0.0,0.0,0.0,0.0,0.0,0.0,0.0,0.0,0.0,0.0,0.0,0.0,0.0,0.0,0.0,0.0,0.0,0.0,0.0,0.0,0.0,0.0,0.0,0.0,0.0,0.0,0.0,0.0,0.0,0.0,0.0,0.0,0.0,0.0,0.0,0.0,0.0,0.0,0.0,0.0,0.0,0.0,0.0,0.0,0.0,0.0,0.0,0.0,0.0,0.0,0.0,0.0,0.0,0.0,0.0,0.0,0.0,0.0,0.0,0.0,0.0,0.0,0.0,0.0,0.0,0.0,0.0,0.0,0.0,0.0,0.0,0.0,0.0,0.0,0.0,0.0,0.0,0.0,0.0,0.0,0.0,0.0,0.0,0.0,0.0,0.0,0.0,0.0,0.0,0.0,0.0,0.0,0.0,0.0,0.0,0.0,0.0,0.0,0.0,0.0,0.0,0.0,0.0,0.0,0.0,0.0,0.0,0.0,0.0,0.0,0.0,0.0,0.0,0.0,0.0,0.0,0.0,0.0,0.0,0.0,0.0,0.0,0.0,0.0,0.0,0.0,0.0,0.0,0.0,0.0,0.0,0.0,0.0,0.0,0.0,0.0,0.0,0.0,0.0,0.0,0.0,0.0,0.0,0.0,0.0,0.0,0.0,0.0,0.0,0.0,0.0,0.0,0.0,0.0,0.0,0.0,0.0,0.0,0.0,0.0,0.0,0.0,0.0,0.0,0.0,0.0,0.0,0.0,0.0,0.0,0.0,0.0,0.0,0.0,0.0,0.0,0.0,0.0,0.0,0.0,0.0,0.0,0.0,0.0,0.0,0.0,0.0,0.0,0.0,0.0,0.0,0.0,0.0,0.0,0.0,0.0,0.0,0.0,0.0,0.0,0.0,0.0,0.0,0.0,0.0,0.0,0.0,0.0,0.0,0.0,0.0,0.0,0.0,0.0,0.0,0.0,0.0,0.0,0.0,0.0,0.0,0.0,0.0,0.0,0.0,0.0,0.0,0.0,0.0,0.0,0.0,0.0,0.0,0.0,0.0,0.0,0.0,0.0,0.0,0.0,0.0,0.0,0.0,0.0,0.0,0.0,0.0,0.0,0.0,0.0,0.0,0.0,0.0,0.0,0.0,0.0,0.0,0.0,0.0,0.0,0.0,0.0,0.0,0.0,0.0,0.0,0.0,0.0,0.0,0.0,0.0,0.0,0.0,0.0,0.0,0.0,0.0,0.0,0.0,0.0,0.0,0.0,0.0,0.0,0.0,0.0,0.0,0.0,0.0,0.0,0.0,0.0,0.0,0.0,0.0,0.0,0.0,0.0,0.0,0.0,0.0,0.0,0.0,0.0,0.0,0.0,0.0,0.0,0.0,0.0,0.0,0.0,0.0,0.0,0.0,0.0,0.0,0.0,0.0,0.0,0.0,0.0,0.0,0.0,0.0,0.0,0.0,0.0,0.0,0.0,0.0,0.0,0.0,0.0,0.0,0.0,0.0,0.0,0.0,0.0,0.0,0.0,0.0,0.0,0.0,0.0,0.0,0.0,0.0,0.0,0.0,0.0,0.0,0.0,0.0,0.0,0.0,0.0,0.0,0.0,0.0,0.0,0.0,0.0,0.0,0.0,0.0,0.0,0.0,0.0,0.0,0.0,0.0,0.0,0.0,0.0,0.0,0.0,0.0,0.0,0.0,0.0,0.0,0.0,0.0,0.0,0.0,0.0,0.0,0.0,0.0,0.0,0.0,0.0,0.0,0.0,0.0,0.0,0.0,0.0,0.0,0.0,0.0,0.0,0.0,0.0,0.0,0.0,0.0,0.0,0.0,0.0,0.0,0.0,0.0,0.0,0.0,0.0,0.0,0.0,0.0,0.0,0.0,0.0,0.0,0.0,0.0,0.0,0.0,0.0,0.0,0.0,0.0,0.0,0.0,0.0,0.0,0.0,0.0,0.0,0.0,0.0,0.0,0.0,0.0,0.0,0.0,0.0,0.0,0.0,0.0,0.0,0.0,0.0,0.0602,0.0,0.0,0.0,0.0,0.0,0.0,0.0,0.0,0.0,0.0,0.0,0.0,0.0,0.0,0.0,0.0,0.0,0.0,0.0,0.0,0.0,0.0,0.0,0.0,0.0,0.0,0.0,0.0,0.0,0.0,0.0,0.0,0.0,0.0,0.0,0.0,0.0,0.0,0.0,0.0,0.0,0.0,0.0,0.0,0.0,0.0,0.0,0.0,0.0,0.0,0.0,0.0,0.0,0.0,0.0,0.0,0.0,0.0,0.0,0.0,0.0,0.0,0.0,0.0,0.0,0.0,0.0,0.0,0.0,0.0,0.0,0.0,0.0,0.0,0.0,0.0,0.0,0.0,0.0,0.0,0.0,0.0,0.0,0.0,0.0,0.0,0.0,0.0,0.0,0.0,0.0,0.0,0.0,0.0,0.0,0.0,0.0,0.0,0.0,0.0,0.0,0.0,0.0,0.0,0.0,1.3492,0.0,0.0,0.0,0.0,0.0,0.0,0.0,0.0,0.0,0.0,0.0,0.0,0.0,0.0,0.0,0.0,0.0,0.0,0.0,0.0,0.0,0.0,0.0,0.0,0.0,0.0,0.0,0.0,0.0,0.0,0.0,0.0,0.0,0.0,0.0,0.0,0.0,0.0,0.0,0.0,0.0,0.0,0.0,0.0,0.0,0.0,0.0,0.0,0.0,0.0,0.0,0.0,0.0,0.0,0.0,0.0,0.0,0.0,0.0,0.0,0.0,0.0,0.0,0.0,0.0,0.0,0.0,0.0,0.0,0.0,0.0,0.0,0.0,0.0,0.0,0.0,0.0,0.0,0.0,0.0,0.0,0.0,0.0,0.0,0.0,0.0,0.0,0.0,0.0,0.0,0.0,0.0,0.0,0.0,0.0,0.0,0.0,0.0,0.0,0.0,0.0,0.0,0.0,0.0,0.0,0.0,0.0,0.0,0.0,0.0,0.0,0.0,0.0,0.0,1.3915,0.0,0.0,0.0,0.0,0.6029,0.0,0.0,0.0,0.0,0.0,0.0,0.0,0.0,0.0,0.0,0.0,0.0,0.0,0.0,0.0,0.0,0.0,0.0,0.0,0.0,0.0,0.0,0.0,0.0,0.0,0.0,0.0,0.0,0.0,0.0,0.0,0.0,0.0,0.0,0.0,0.0,0.0,0.0,0.0,0.0,0.0,0.0,0.0,0.0,0.0,0.0,0.0,0.0,0.0,0.0,0.0,0.0,0.0,0.0,0.0,0.0,0.0,0.0,0.0,0.0,0.0,0.0,0.0,0.0,0.0,0.0,0.0,0.0,0.0,0.0,0.0,0.0,0.0,0.0,0.0,0.0,0.0,0.0,0.0,0.0,0.0,0.0,0.0,0.0,0.0,0.0,0.0,0.0,0.0,0.0,0.0,0.0,0.0,0.0,0.0,0.0,0.0,0.0,0.0,0.0,0.0,0.0,0.0,0.0,0.0,1.4509,1.44,0.0,0.0,0.0,0.0,0.0,0.0,0.0,0.0,0.0,0.0,0.0,0.0,0.0,0.0,0.0,0.0,0.0,0.0,0.0,0.0,0.0,0.0,0.0,0.0,0.0,0.0,0.0,0.0,0.0,0.0,0.0,0.0,0.0,0.0,0.0,0.0,0.0,0.0,0.0,0.0,0.0,0.0,0.0,0.0,0.0,0.0,0.0,0.0,0.0,0.0,0.0,0.0,0.0,0.0,0.0,0.0,0.0,0.0,0.0,0.0,0.0,0.0,0.0,0.0,0.0,0.0,0.0,0.0,0.0,0.0,0.0,0.0,0.0,0.0,0.0,0.0,0.0,0.0,0.0,0.0,0.0,0.0,0.0,0.0,0.0,0.0,0.0,0.0,0.0,0.0,0.0,0.0,0.0,0.0,0.0,0.0,0.0,0.0,0.0,0.0,0.0,0.0,0.0,0.0,0.0,0.0,0.0,0.0,1.5255,1.5276,0.0,1.497,1.4679,0.0,1.3641,0.0,0.0,0.0,0.0,0.0,0.0,0.0,0.0,0.0,0.0,0.0,0.0,0.0,0.0,0.0,0.0,0.0,0.0,0.0,0.0,0.0,0.0,0.0,0.0,0.0,0.0,0.0,0.0,0.0,0.0,0.0,0.0,0.0,0.0,0.0,0.0,0.0,0.0,0.0,0.0,0.0,0.0,0.0,0.0,0.0,0.0,0.0,0.0,0.0,0.0,0.0,0.0,0.0,0.0,0.0,0.0,0.0,0.0,0.0,0.0,0.0,0.0,0.0,0.0,0.0,0.0,0.0,0.0,0.0,0.0,0.0,0.0,0.0,0.0,0.0,0.0,0.0,0.0,0.0,0.0,0.0,0.0,0.0,0.0,0.0,0.0,0.0,0.0,0.0,0.0,0.0,0.0,0.0,0.0,0.0,0.0,0.0,0.0,0.0,0.0,0.0,0.0,0.0,0.0,0.0]}]]